Wetterdaten: Freitag, 18.11.2016
Datum Zeit Temp. Aussen Temp. o. S. +5cm Feuchte Auss BlattFeu 1 Luftdruck Regen Sonnenschein Regendauer Solar Windben Empfang
18.11.2016 00:00 11,4 C 10,6 C 8,3 C 87 % 0 lf 996,0 hPa 0,0 l/m 0 min 0 min 0 W/m 33,5 km/h (5 Bft) 95,65 %
18.11.2016 00:02 11,4 C 10,6 C 8,9 C 87 % 0 lf 995,8 hPa 0,0 l/m 0 min 0 min 0 W/m 29,3 km/h (5 Bft) 95,00 %
18.11.2016 00:05 11,4 C 11,1 C 8,9 C 87 % 0 lf 995,7 hPa 0,0 l/m 0 min 0 min 0 W/m 29,3 km/h (5 Bft) 98,59 %
18.11.2016 00:08 11,4 C 11,1 C 8,9 C 87 % 0 lf 995,6 hPa 0,0 l/m 0 min 0 min 0 W/m 29,3 km/h (5 Bft) 95,77 %
18.11.2016 00:10 11,4 C 11,1 C 8,9 C 87 % 0 lf 995,6 hPa 0,0 l/m 0 min 0 min 0 W/m 27,2 km/h (4 Bft) 97,87 %
18.11.2016 00:12 11,4 C 11,1 C 8,9 C 87 % 0 lf 995,6 hPa 0,0 l/m 0 min 0 min 0 W/m 25,1 km/h (4 Bft) 97,83 %
18.11.2016 00:14 11,3 C 11,1 C 8,9 C 87 % 0 lf 995,6 hPa 0,0 l/m 0 min 0 min 0 W/m 20,9 km/h (4 Bft) 97,87 %
18.11.2016 00:16 11,3 C 11,1 C 8,9 C 87 % 0 lf 995,5 hPa 0,0 l/m 0 min 0 min 0 W/m 35,6 km/h (5 Bft) 95,74 %
18.11.2016 00:18 11,3 C 11,1 C 8,9 C 87 % 0 lf 995,5 hPa 0,0 l/m 0 min 0 min 0 W/m 20,9 km/h (4 Bft) 95,74 %
18.11.2016 00:20 11,3 C 11,1 C 8,9 C 87 % 0 lf 995,4 hPa 0,0 l/m 0 min 0 min 0 W/m 23,0 km/h (4 Bft) 97,87 %
18.11.2016 00:22 11,3 C 11,1 C 8,9 C 87 % 0 lf 995,4 hPa 0,0 l/m 0 min 0 min 0 W/m 33,5 km/h (5 Bft) 97,87 %
18.11.2016 00:24 11,3 C 11,1 C 8,9 C 87 % 0 lf 995,4 hPa 0,0 l/m 0 min 0 min 0 W/m 31,4 km/h (5 Bft) 97,83 %
18.11.2016 00:26 11,3 C 11,1 C 8,9 C 87 % 0 lf 995,4 hPa 0,0 l/m 0 min 2 min 0 W/m 27,2 km/h (4 Bft) 95,74 %
18.11.2016 00:28 11,3 C 11,1 C 8,9 C 87 % 0 lf 995,5 hPa 0,0 l/m 0 min 0 min 0 W/m 35,6 km/h (5 Bft) 97,87 %
18.11.2016 00:30 11,3 C 11,1 C 8,9 C 87 % 0 lf 995,4 hPa 0,0 l/m 0 min 0 min 0 W/m 33,5 km/h (5 Bft) 97,87 %
18.11.2016 00:32 11,3 C 11,1 C 8,9 C 87 % 0 lf 995,4 hPa 0,0 l/m 0 min 0 min 0 W/m 29,3 km/h (5 Bft) 97,87 %
18.11.2016 00:34 11,3 C 11,1 C 8,9 C 87 % 0 lf 995,3 hPa 0,0 l/m 0 min 0 min 0 W/m 23,0 km/h (4 Bft) 93,62 %
18.11.2016 00:36 11,3 C 11,1 C 8,9 C 87 % 0 lf 995,3 hPa 0,0 l/m 0 min 0 min 0 W/m 29,3 km/h (5 Bft) 97,83 %
18.11.2016 00:38 11,3 C 11,1 C 8,9 C 87 % 0 lf 995,1 hPa 0,0 l/m 0 min 0 min 0 W/m 20,9 km/h (4 Bft) 97,87 %
18.11.2016 00:40 11,2 C 11,1 C 8,9 C 87 % 0 lf 995,1 hPa 0,0 l/m 0 min 0 min 0 W/m 27,2 km/h (4 Bft) 97,87 %
18.11.2016 00:42 11,2 C 11,1 C 9,4 C 87 % 0 lf 995,1 hPa 0,0 l/m 0 min 0 min 0 W/m 35,6 km/h (5 Bft) 95,74 %
18.11.2016 00:44 11,3 C 11,1 C 9,4 C 87 % 0 lf 995,0 hPa 0,0 l/m 0 min 0 min 0 W/m 31,4 km/h (5 Bft) 97,87 %
18.11.2016 00:46 11,2 C 11,1 C 9,4 C 87 % 0 lf 994,9 hPa 0,0 l/m 0 min 0 min 0 W/m 25,1 km/h (4 Bft) 95,65 %
18.11.2016 00:48 11,2 C 11,1 C 9,4 C 87 % 0 lf 995,0 hPa 0,0 l/m 0 min 0 min 0 W/m 35,6 km/h (5 Bft) 97,87 %
18.11.2016 00:50 11,3 C 11,1 C 8,9 C 87 % 0 lf 994,9 hPa 0,0 l/m 0 min 0 min 0 W/m 18,8 km/h (3 Bft) 95,74 %
18.11.2016 00:52 11,2 C 11,1 C 8,9 C 87 % 0 lf 994,9 hPa 0,0 l/m 0 min 0 min 0 W/m 33,5 km/h (5 Bft) 95,74 %
18.11.2016 00:54 11,3 C 11,1 C 9,4 C 87 % 0 lf 994,8 hPa 0,0 l/m 0 min 0 min 0 W/m 29,3 km/h (5 Bft) 97,87 %
18.11.2016 00:56 11,3 C 11,1 C 8,9 C 87 % 0 lf 994,8 hPa 0,0 l/m 0 min 0 min 0 W/m 27,2 km/h (4 Bft) 97,87 %
18.11.2016 00:58 11,3 C 11,1 C 9,4 C 86 % 0 lf 994,7 hPa 0,0 l/m 0 min 0 min 0 W/m 29,3 km/h (5 Bft) 95,65 %
18.11.2016 01:00 11,3 C 11,7 C 9,4 C 86 % 0 lf 994,7 hPa 0,0 l/m 0 min 0 min 0 W/m 37,7 km/h (5 Bft) 97,87 %
18.11.2016 01:02 11,3 C 11,7 C 9,4 C 86 % 0 lf 994,7 hPa 0,0 l/m 0 min 0 min 0 W/m 41,8 km/h (6 Bft) 97,87 %
18.11.2016 01:04 11,3 C 11,7 C 9,4 C 86 % 0 lf 994,8 hPa 0,0 l/m 0 min 0 min 0 W/m 27,2 km/h (4 Bft) 97,87 %
18.11.2016 01:06 11,3 C 11,7 C 9,4 C 86 % 0 lf 994,7 hPa 0,0 l/m 0 min 0 min 0 W/m 23,0 km/h (4 Bft) 97,87 %
18.11.2016 01:08 11,4 C 11,7 C 9,4 C 86 % 0 lf 994,7 hPa 0,0 l/m 0 min 0 min 0 W/m 29,3 km/h (5 Bft) 95,74 %
18.11.2016 01:10 11,4 C 11,7 C 9,4 C 86 % 0 lf 994,5 hPa 0,0 l/m 0 min 0 min 0 W/m 29,3 km/h (5 Bft) 97,83 %
18.11.2016 01:12 11,4 C 11,7 C 9,4 C 86 % 0 lf 994,5 hPa 0,0 l/m 0 min 0 min 0 W/m 31,4 km/h (5 Bft) 97,87 %
18.11.2016 01:14 11,4 C 11,1 C 9,4 C 86 % 0 lf 994,4 hPa 0,0 l/m 0 min 0 min 0 W/m 29,3 km/h (5 Bft) 97,87 %
18.11.2016 01:16 11,4 C 11,7 C 9,4 C 85 % 0 lf 994,6 hPa 0,0 l/m 0 min 0 min 0 W/m 35,6 km/h (5 Bft) 97,87 %
18.11.2016 01:18 11,4 C 11,1 C 9,4 C 85 % 0 lf 994,4 hPa 0,0 l/m 0 min 0 min 0 W/m 33,5 km/h (5 Bft) 95,74 %
18.11.2016 01:20 11,4 C 11,1 C 9,4 C 85 % 0 lf 994,4 hPa 0,0 l/m 0 min 0 min 0 W/m 31,4 km/h (5 Bft) 95,74 %
18.11.2016 01:22 11,4 C 11,1 C 9,4 C 85 % 0 lf 994,3 hPa 0,0 l/m 0 min 0 min 0 W/m 31,4 km/h (5 Bft) 93,48 %
18.11.2016 01:24 11,4 C 11,1 C 9,4 C 85 % 0 lf 994,3 hPa 0,0 l/m 0 min 0 min 0 W/m 23,0 km/h (4 Bft) 97,87 %
18.11.2016 01:26 11,4 C 11,7 C 9,4 C 85 % 0 lf 994,2 hPa 0,0 l/m 0 min 0 min 0 W/m 37,7 km/h (5 Bft) 93,62 %
18.11.2016 01:28 11,4 C 11,7 C 9,4 C 85 % 0 lf 994,2 hPa 0,0 l/m 0 min 0 min 0 W/m 25,1 km/h (4 Bft) 97,87 %
18.11.2016 01:30 11,4 C 11,7 C 9,4 C 85 % 0 lf 994,2 hPa 0,0 l/m 0 min 0 min 0 W/m 31,4 km/h (5 Bft) 95,74 %
18.11.2016 01:32 11,4 C 11,7 C 9,4 C 85 % 0 lf 994,2 hPa 0,0 l/m 0 min 0 min 0 W/m 37,7 km/h (5 Bft) 97,87 %
18.11.2016 01:34 11,4 C 11,7 C 9,4 C 85 % 0 lf 994,2 hPa 0,0 l/m 0 min 0 min 0 W/m 31,4 km/h (5 Bft) 95,65 %
18.11.2016 01:36 11,5 C 11,7 C 10,0 C 85 % 0 lf 994,2 hPa 0,0 l/m 0 min 0 min 0 W/m 39,7 km/h (6 Bft) 97,87 %
18.11.2016 01:38 11,5 C 11,7 C 10,0 C 85 % 0 lf 994,2 hPa 0,0 l/m 0 min 0 min 0 W/m 31,4 km/h (5 Bft) 95,74 %
18.11.2016 01:40 11,5 C 11,7 C 10,0 C 85 % 0 lf 994,2 hPa 0,0 l/m 0 min 0 min 0 W/m 43,9 km/h (6 Bft) 97,87 %
18.11.2016 01:42 11,6 C 11,7 C 10,0 C 85 % 0 lf 994,0 hPa 0,0 l/m 0 min 0 min 0 W/m 43,9 km/h (6 Bft) 91,49 %
18.11.2016 01:44 11,6 C 11,7 C 10,0 C 85 % 0 lf 994,1 hPa 0,0 l/m 0 min 0 min 0 W/m 37,7 km/h (5 Bft) 93,62 %
18.11.2016 01:46 11,6 C 11,7 C 10,0 C 84 % 0 lf 993,9 hPa 0,0 l/m 0 min 0 min 0 W/m 27,2 km/h (4 Bft) 95,65 %
18.11.2016 01:48 11,6 C 11,7 C 10,0 C 84 % 0 lf 993,9 hPa 0,0 l/m 0 min 0 min 0 W/m 41,8 km/h (6 Bft) 97,87 %
18.11.2016 01:50 11,6 C 11,7 C 10,0 C 84 % 0 lf 993,9 hPa 0,0 l/m 0 min 0 min 0 W/m 37,7 km/h (5 Bft) 95,74 %
18.11.2016 01:52 11,6 C 11,7 C 10,0 C 84 % 0 lf 993,8 hPa 0,0 l/m 0 min 0 min 0 W/m 31,4 km/h (5 Bft) 91,49 %
18.11.2016 01:54 11,7 C 11,7 C 10,0 C 84 % 0 lf 993,7 hPa 0,0 l/m 0 min 0 min 0 W/m 33,5 km/h (5 Bft) 95,74 %
18.11.2016 01:56 11,7 C 11,7 C 10,0 C 84 % 0 lf 993,8 hPa 0,0 l/m 0 min 0 min 0 W/m 37,7 km/h (5 Bft) 95,65 %
18.11.2016 01:58 11,7 C 11,7 C 10,0 C 84 % 0 lf 993,7 hPa 0,0 l/m 0 min 0 min 0 W/m 35,6 km/h (5 Bft) 93,62 %
18.11.2016 02:00 11,7 C 11,7 C 10,0 C 84 % 0 lf 993,7 hPa 0,0 l/m 0 min 0 min 0 W/m 29,3 km/h (5 Bft) 91,49 %
18.11.2016 02:02 11,7 C 11,7 C 10,0 C 84 % 0 lf 993,6 hPa 0,0 l/m 0 min 0 min 0 W/m 33,5 km/h (5 Bft) 87,23 %
18.11.2016 02:04 11,7 C 11,7 C 10,0 C 84 % 0 lf 993,7 hPa 0,0 l/m 0 min 0 min 0 W/m 39,7 km/h (6 Bft) 93,62 %
18.11.2016 02:06 11,7 C 12,2 C 10,0 C 84 % 0 lf 993,6 hPa 0,0 l/m 0 min 0 min 0 W/m 39,7 km/h (6 Bft) 91,49 %
18.11.2016 02:08 11,8 C 12,2 C 10,0 C 84 % 0 lf 993,6 hPa 0,0 l/m 0 min 0 min 0 W/m 37,7 km/h (5 Bft) 95,65 %
18.11.2016 02:10 11,8 C 12,2 C 10,0 C 84 % 0 lf 993,5 hPa 0,0 l/m 0 min 0 min 0 W/m 27,2 km/h (4 Bft) 93,62 %
18.11.2016 02:12 11,8 C 11,7 C 10,0 C 84 % 0 lf 993,5 hPa 0,0 l/m 0 min 0 min 0 W/m 37,7 km/h (5 Bft) 93,62 %
18.11.2016 02:14 11,8 C 11,7 C 10,0 C 84 % 0 lf 993,5 hPa 0,0 l/m 0 min 0 min 0 W/m 37,7 km/h (5 Bft) 95,74 %
18.11.2016 02:16 11,8 C 12,2 C 10,0 C 84 % 0 lf 993,6 hPa 0,0 l/m 0 min 0 min 0 W/m 37,7 km/h (5 Bft) 89,36 %
18.11.2016 02:18 11,8 C 12,2 C 10,0 C 84 % 0 lf 993,6 hPa 0,0 l/m 0 min 0 min 0 W/m 41,8 km/h (6 Bft) 95,74 %
18.11.2016 02:20 11,8 C 12,2 C 10,0 C 84 % 0 lf 993,5 hPa 0,0 l/m 0 min 0 min 0 W/m 25,1 km/h (4 Bft) 93,48 %
18.11.2016 02:22 11,8 C 12,2 C 10,0 C 84 % 0 lf 993,5 hPa 0,0 l/m 0 min 0 min 0 W/m 31,4 km/h (5 Bft) 97,87 %
18.11.2016 02:24 11,8 C 12,2 C 10,0 C 84 % 0 lf 993,5 hPa 0,0 l/m 0 min 0 min 0 W/m 29,3 km/h (5 Bft) 95,74 %
18.11.2016 02:26 11,9 C 12,2 C 10,0 C 84 % 0 lf 993,5 hPa 0,0 l/m 0 min 0 min 0 W/m 29,3 km/h (5 Bft) 95,74 %
18.11.2016 02:28 11,8 C 11,7 C 10,0 C 84 % 0 lf 993,5 hPa 0,0 l/m 0 min 0 min 0 W/m 31,4 km/h (5 Bft) 95,74 %
18.11.2016 02:30 11,8 C 11,7 C 10,0 C 84 % 0 lf 993,4 hPa 0,0 l/m 0 min 0 min 0 W/m 23,0 km/h (4 Bft) 95,74 %
18.11.2016 02:32 11,8 C 11,7 C 10,0 C 84 % 0 lf 993,4 hPa 0,0 l/m 0 min 0 min 0 W/m 29,3 km/h (5 Bft) 95,65 %
18.11.2016 02:34 11,8 C 11,7 C 10,0 C 84 % 0 lf 993,5 hPa 0,0 l/m 0 min 0 min 0 W/m 39,7 km/h (6 Bft) 95,74 %
18.11.2016 02:36 11,8 C 11,7 C 10,0 C 84 % 0 lf 993,5 hPa 0,0 l/m 0 min 0 min 0 W/m 35,6 km/h (5 Bft) 93,62 %
18.11.2016 02:38 11,8 C 11,7 C 10,0 C 84 % 0 lf 993,5 hPa 0,0 l/m 0 min 0 min 0 W/m 23,0 km/h (4 Bft) 95,74 %
18.11.2016 02:40 11,8 C 11,7 C 10,0 C 84 % 0 lf 993,5 hPa 0,0 l/m 0 min 0 min 0 W/m 41,8 km/h (6 Bft) 97,87 %
18.11.2016 02:42 11,8 C 12,2 C 10,0 C 84 % 0 lf 993,4 hPa 0,0 l/m 0 min 0 min 0 W/m 31,4 km/h (5 Bft) 97,87 %
18.11.2016 02:44 11,8 C 12,2 C 10,6 C 84 % 0 lf 993,4 hPa 0,0 l/m 0 min 0 min 0 W/m 39,7 km/h (6 Bft) 97,83 %
18.11.2016 02:46 11,9 C 12,2 C 10,6 C 85 % 0 lf 993,4 hPa 0,0 l/m 0 min 0 min 0 W/m 29,3 km/h (5 Bft) 97,87 %
18.11.2016 02:48 11,9 C 12,2 C 10,0 C 85 % 0 lf 993,3 hPa 0,0 l/m 0 min 0 min 0 W/m 31,4 km/h (5 Bft) 93,62 %
18.11.2016 02:50 11,9 C 12,2 C 10,0 C 84 % 0 lf 993,3 hPa 0,0 l/m 0 min 0 min 0 W/m 29,3 km/h (5 Bft) 97,87 %
18.11.2016 02:52 11,9 C 12,2 C 10,0 C 84 % 0 lf 993,4 hPa 0,0 l/m 0 min 0 min 0 W/m 25,1 km/h (4 Bft) 97,87 %
18.11.2016 02:54 11,9 C 12,2 C 10,0 C 84 % 0 lf 993,3 hPa 0,0 l/m 0 min 0 min 0 W/m 37,7 km/h (5 Bft) 97,87 %
18.11.2016 02:56 11,9 C 12,2 C 10,0 C 84 % 0 lf 993,3 hPa 0,0 l/m 0 min 0 min 0 W/m 35,6 km/h (5 Bft) 95,65 %
18.11.2016 02:58 11,9 C 12,2 C 10,6 C 84 % 0 lf 993,3 hPa 0,0 l/m 0 min 0 min 0 W/m 41,8 km/h (6 Bft) 100,00 %
18.11.2016 03:00 11,9 C 12,2 C 10,6 C 84 % 0 lf 993,2 hPa 0,0 l/m 0 min 0 min 0 W/m 23,0 km/h (4 Bft) 97,87 %
18.11.2016 03:02 11,9 C 12,2 C 10,6 C 84 % 0 lf 993,2 hPa 0,0 l/m 0 min 0 min 0 W/m 35,6 km/h (5 Bft) 97,87 %
18.11.2016 03:04 12,0 C 12,2 C 10,6 C 84 % 0 lf 993,2 hPa 0,0 l/m 0 min 0 min 0 W/m 35,6 km/h (5 Bft) 100,00 %
18.11.2016 03:06 12,0 C 12,2 C 10,6 C 84 % 0 lf 993,1 hPa 0,0 l/m 0 min 0 min 0 W/m 31,4 km/h (5 Bft) 93,62 %
18.11.2016 03:08 12,0 C 12,2 C 10,6 C 84 % 1 lf 993,1 hPa 0,0 l/m 0 min 2 min 0 W/m 33,5 km/h (5 Bft) 100,00 %
18.11.2016 03:10 12,0 C 12,2 C 10,0 C 84 % 0 lf 992,9 hPa 0,0 l/m 0 min 2 min 0 W/m 20,9 km/h (4 Bft) 97,87 %
18.11.2016 03:12 12,0 C 12,2 C 10,0 C 84 % 0 lf 993,0 hPa 0,0 l/m 0 min 0 min 0 W/m 39,7 km/h (6 Bft) 100,00 %
18.11.2016 03:14 12,0 C 12,2 C 10,0 C 84 % 0 lf 993,0 hPa 0,0 l/m 0 min 0 min 0 W/m 23,0 km/h (4 Bft) 97,87 %
18.11.2016 03:16 12,0 C 12,2 C 10,0 C 84 % 0 lf 993,0 hPa 0,0 l/m 0 min 0 min 0 W/m 33,5 km/h (5 Bft) 100,00 %
18.11.2016 03:18 12,0 C 12,2 C 10,6 C 84 % 0 lf 992,9 hPa 0,0 l/m 0 min 0 min 0 W/m 35,6 km/h (5 Bft) 97,83 %
18.11.2016 03:20 12,0 C 12,2 C 10,0 C 84 % 0 lf 992,6 hPa 0,0 l/m 0 min 0 min 0 W/m 25,1 km/h (4 Bft) 95,74 %
18.11.2016 03:22 12,0 C 12,2 C 10,6 C 84 % 0 lf 992,5 hPa 0,0 l/m 0 min 0 min 0 W/m 37,7 km/h (5 Bft) 100,00 %
18.11.2016 03:24 12,0 C 12,2 C 10,6 C 84 % 0 lf 992,5 hPa 0,0 l/m 0 min 0 min 0 W/m 41,8 km/h (6 Bft) 97,87 %
18.11.2016 03:26 12,0 C 12,2 C 10,6 C 84 % 0 lf 992,5 hPa 0,0 l/m 0 min 0 min 0 W/m 29,3 km/h (5 Bft) 97,87 %
18.11.2016 03:28 12,0 C 12,2 C 10,6 C 84 % 1 lf 992,7 hPa 0,0 l/m 0 min 0 min 0 W/m 39,7 km/h (6 Bft) 97,87 %
18.11.2016 03:30 12,0 C 11,7 C 10,0 C 85 % 3 lf 992,5 hPa 0,0 l/m 0 min 2 min 0 W/m 54,4 km/h (7 Bft) 97,83 %
18.11.2016 03:32 12,1 C 11,7 C 10,0 C 85 % 3 lf 992,5 hPa 0,0 l/m 0 min 2 min 0 W/m 43,9 km/h (6 Bft) 95,74 %
18.11.2016 03:34 12,1 C 11,7 C 9,4 C 85 % 2 lf 992,5 hPa 0,0 l/m 0 min 2 min 0 W/m 43,9 km/h (6 Bft) 97,87 %
18.11.2016 03:36 12,1 C 11,7 C 9,4 C 85 % 4 lf 992,4 hPa 0,0 l/m 0 min 2 min 0 W/m 54,4 km/h (7 Bft) 97,87 %
18.11.2016 03:38 12,0 C 11,1 C 9,4 C 85 % 5 lf 992,3 hPa 0,0 l/m 0 min 2 min 0 W/m 29,3 km/h (5 Bft) 95,74 %
18.11.2016 03:40 12,0 C 10,6 C 8,9 C 86 % 11 lf 992,1 hPa 0,0 l/m 0 min 2 min 0 W/m 29,3 km/h (5 Bft) 97,87 %
18.11.2016 03:42 11,9 C 10,6 C 8,9 C 86 % 12 lf 992,2 hPa 0,0 l/m 0 min 2 min 0 W/m 27,2 km/h (4 Bft) 95,65 %
18.11.2016 03:44 11,9 C 10,6 C 8,9 C 86 % 10 lf 992,4 hPa 0,0 l/m 0 min 2 min 0 W/m 29,3 km/h (5 Bft) 95,74 %
18.11.2016 03:46 11,9 C 10,6 C 8,9 C 86 % 13 lf 992,2 hPa 0,0 l/m 0 min 2 min 0 W/m 25,1 km/h (4 Bft) 97,87 %
18.11.2016 03:48 11,8 C 11,1 C 8,9 C 86 % 14 lf 992,2 hPa 0,2 l/m 0 min 2 min 0 W/m 43,9 km/h (6 Bft) 95,74 %
18.11.2016 03:50 11,8 C 11,1 C 8,9 C 87 % 14 lf 992,2 hPa 0,0 l/m 0 min 2 min 0 W/m 41,8 km/h (6 Bft) 97,87 %
18.11.2016 03:52 11,8 C 11,1 C 8,9 C 87 % 14 lf 992,1 hPa 0,0 l/m 0 min 2 min 0 W/m 37,7 km/h (5 Bft) 97,87 %
18.11.2016 03:54 11,8 C 11,1 C 8,9 C 87 % 13 lf 991,9 hPa 0,0 l/m 0 min 2 min 0 W/m 43,9 km/h (6 Bft) 97,83 %
18.11.2016 03:56 11,7 C 10,6 C 8,9 C 87 % 12 lf 991,9 hPa 0,0 l/m 0 min 2 min 0 W/m 25,1 km/h (4 Bft) 95,74 %
18.11.2016 03:58 11,7 C 10,6 C 8,9 C 87 % 11 lf 991,9 hPa 0,0 l/m 0 min 2 min 0 W/m 29,3 km/h (5 Bft) 100,00 %
18.11.2016 04:00 11,7 C 10,6 C 8,9 C 87 % 10 lf 991,8 hPa 0,0 l/m 0 min 0 min 0 W/m 27,2 km/h (4 Bft) 100,00 %
18.11.2016 04:06 11,6 C 10,6 C 8,9 C 87 % 9 lf 991,7 hPa 0,0 l/m 0 min 0 min 0 W/m 25,1 km/h (4 Bft) 95,65 %
18.11.2016 04:08 11,6 C 11,7 C 8,9 C 87 % 9 lf 991,6 hPa 0,0 l/m 0 min 0 min 0 W/m 29,3 km/h (5 Bft) 100,00 %
18.11.2016 04:10 11,6 C 11,1 C 8,9 C 87 % 9 lf 991,7 hPa 0,0 l/m 0 min 0 min 0 W/m 25,1 km/h (4 Bft) 100,00 %
18.11.2016 04:12 11,6 C 10,6 C 8,9 C 87 % 13 lf 991,7 hPa 0,0 l/m 0 min 2 min 0 W/m 43,9 km/h (6 Bft) 97,87 %
18.11.2016 04:14 11,6 C 10,6 C 8,9 C 87 % 14 lf 991,8 hPa 0,0 l/m 0 min 2 min 0 W/m 33,5 km/h (5 Bft) 95,74 %
18.11.2016 04:16 11,6 C 10,6 C 8,9 C 87 % 14 lf 991,5 hPa 0,0 l/m 0 min 2 min 0 W/m 39,7 km/h (6 Bft) 100,00 %
18.11.2016 04:18 11,6 C 10,6 C 8,9 C 87 % 13 lf 991,5 hPa 0,0 l/m 0 min 2 min 0 W/m 29,3 km/h (5 Bft) 100,00 %
18.11.2016 04:20 11,6 C 10,6 C 8,9 C 87 % 15 lf 991,5 hPa 0,0 l/m 0 min 2 min 0 W/m 46,0 km/h (6 Bft) 95,74 %
18.11.2016 04:22 11,6 C 10,6 C 8,9 C 87 % 14 lf 991,3 hPa 0,0 l/m 0 min 2 min 0 W/m 33,5 km/h (5 Bft) 100,00 %
18.11.2016 04:24 11,6 C 11,1 C 8,9 C 87 % 13 lf 991,3 hPa 0,0 l/m 0 min 2 min 0 W/m 43,9 km/h (6 Bft) 100,00 %
18.11.2016 04:26 11,6 C 11,1 C 8,9 C 87 % 10 lf 991,3 hPa 0,0 l/m 0 min 2 min 0 W/m 33,5 km/h (5 Bft) 100,00 %
18.11.2016 04:28 11,6 C 10,6 C 8,9 C 87 % 6 lf 991,0 hPa 0,0 l/m 0 min 2 min 0 W/m 33,5 km/h (5 Bft) 97,87 %
18.11.2016 04:30 11,6 C 10,6 C 8,9 C 87 % 4 lf 990,7 hPa 0,0 l/m 0 min 2 min 0 W/m 43,9 km/h (6 Bft) 97,87 %
18.11.2016 04:32 11,7 C 10,6 C 8,9 C 86 % 3 lf 990,8 hPa 0,0 l/m 0 min 2 min 0 W/m 52,3 km/h (7 Bft) 97,87 %
18.11.2016 04:34 11,5 C 9,4 C 7,8 C 85 % 15 lf 991,4 hPa 0,0 l/m 0 min 2 min 0 W/m 46,0 km/h (6 Bft) 97,83 %
18.11.2016 04:36 11,2 C 8,3 C 7,2 C 84 % 15 lf 992,4 hPa 0,4 l/m 0 min 2 min 0 W/m 27,2 km/h (4 Bft) 93,62 %
18.11.2016 04:38 10,9 C 7,8 C 6,7 C 84 % 15 lf 992,8 hPa 0,4 l/m 0 min 2 min 0 W/m 31,4 km/h (5 Bft) 95,74 %
18.11.2016 04:40 10,6 C 7,2 C 6,1 C 84 % 15 lf 993,3 hPa 0,4 l/m 0 min 2 min 0 W/m 25,1 km/h (4 Bft) 95,74 %
18.11.2016 04:42 10,3 C 7,2 C 6,1 C 84 % 15 lf 993,3 hPa 0,4 l/m 0 min 2 min 5 W/m 27,2 km/h (4 Bft) 95,74 %
18.11.2016 04:44 10,0 C 7,2 C 5,6 C 84 % 15 lf 993,5 hPa 0,4 l/m 0 min 2 min 5 W/m 20,9 km/h (4 Bft) 93,62 %
18.11.2016 04:46 9,7 C 6,7 C 5,6 C 85 % 15 lf 993,8 hPa 0,2 l/m 0 min 2 min 0 W/m 23,0 km/h (4 Bft) 95,65 %
18.11.2016 04:48 9,6 C 6,7 C 5,6 C 85 % 15 lf 994,1 hPa 0,0 l/m 0 min 2 min 0 W/m 25,1 km/h (4 Bft) 93,62 %
18.11.2016 04:50 9,2 C 6,7 C 5,6 C 85 % 15 lf 994,2 hPa 0,2 l/m 0 min 2 min 0 W/m 29,3 km/h (5 Bft) 95,74 %
18.11.2016 04:52 9,0 C 6,7 C 5,6 C 86 % 15 lf 994,2 hPa 0,2 l/m 0 min 2 min 0 W/m 33,5 km/h (5 Bft) 93,62 %
18.11.2016 04:54 8,7 C 6,1 C 5,6 C 86 % 15 lf 993,9 hPa 0,2 l/m 0 min 2 min 0 W/m 33,5 km/h (5 Bft) 97,87 %
18.11.2016 04:56 8,4 C 6,1 C 5,0 C 86 % 15 lf 993,9 hPa 0,0 l/m 0 min 2 min 0 W/m 18,8 km/h (3 Bft) 95,74 %
18.11.2016 04:58 8,3 C 6,1 C 5,0 C 87 % 15 lf 993,7 hPa 0,2 l/m 0 min 2 min 0 W/m 16,7 km/h (3 Bft) 93,48 %
18.11.2016 05:00 8,1 C 6,1 C 5,0 C 87 % 15 lf 993,6 hPa 0,2 l/m 0 min 2 min 0 W/m 16,7 km/h (3 Bft) 91,49 %
18.11.2016 05:02 7,9 C 6,1 C 5,0 C 88 % 15 lf 993,6 hPa 0,0 l/m 0 min 2 min 0 W/m 20,9 km/h (4 Bft) 91,49 %
18.11.2016 05:04 7,8 C 6,1 C 5,0 C 88 % 15 lf 993,9 hPa 0,2 l/m 0 min 2 min 5 W/m 20,9 km/h (4 Bft) 89,36 %
18.11.2016 05:06 7,7 C 6,1 C 5,0 C 88 % 15 lf 994,2 hPa 0,0 l/m 0 min 2 min 5 W/m 20,9 km/h (4 Bft) 91,49 %
18.11.2016 05:08 7,5 C 6,1 C 5,0 C 88 % 15 lf 994,2 hPa 0,0 l/m 0 min 2 min 5 W/m 12,6 km/h (3 Bft) 91,49 %
18.11.2016 05:10 7,4 C 6,1 C 5,0 C 89 % 15 lf 994,2 hPa 0,2 l/m 0 min 2 min 5 W/m 12,6 km/h (3 Bft) 93,48 %
18.11.2016 05:12 7,3 C 6,1 C 5,0 C 89 % 15 lf 994,2 hPa 0,0 l/m 0 min 2 min 0 W/m 14,6 km/h (3 Bft) 89,36 %
18.11.2016 05:14 7,3 C 6,1 C 5,0 C 89 % 15 lf 994,2 hPa 0,0 l/m 0 min 0 min 0 W/m 16,7 km/h (3 Bft) 93,62 %
18.11.2016 05:16 7,2 C 6,1 C 5,0 C 90 % 15 lf 994,2 hPa 0,0 l/m 0 min 2 min 5 W/m 10,5 km/h (2 Bft) 93,62 %
18.11.2016 05:18 7,1 C 6,1 C 5,0 C 90 % 15 lf 993,8 hPa 0,0 l/m 0 min 0 min 0 W/m 12,6 km/h (3 Bft) 91,49 %
18.11.2016 05:20 7,1 C 6,1 C 5,0 C 90 % 15 lf 993,7 hPa 0,0 l/m 0 min 2 min 5 W/m 14,6 km/h (3 Bft) 91,49 %
18.11.2016 05:22 7,0 C 6,1 C 5,0 C 90 % 15 lf 993,8 hPa 0,0 l/m 0 min 2 min 5 W/m 10,5 km/h (2 Bft) 91,30 %
18.11.2016 05:24 6,9 C 6,1 C 5,0 C 91 % 15 lf 994,1 hPa 0,0 l/m 0 min 0 min 5 W/m 10,5 km/h (2 Bft) 91,49 %
18.11.2016 05:26 6,9 C 6,1 C 5,0 C 91 % 15 lf 994,2 hPa 0,0 l/m 0 min 0 min 5 W/m 10,5 km/h (2 Bft) 95,74 %
18.11.2016 05:28 6,9 C 6,1 C 5,0 C 91 % 15 lf 994,2 hPa 0,0 l/m 0 min 0 min 5 W/m 10,5 km/h (2 Bft) 93,62 %
18.11.2016 05:30 6,8 C 6,1 C 5,0 C 91 % 15 lf 994,3 hPa 0,0 l/m 0 min 0 min 0 W/m 16,7 km/h (3 Bft) 89,36 %
18.11.2016 05:32 6,8 C 6,1 C 5,0 C 91 % 15 lf 994,4 hPa 0,0 l/m 0 min 0 min 0 W/m 12,6 km/h (3 Bft) 93,62 %
18.11.2016 05:34 6,8 C 6,1 C 5,0 C 92 % 15 lf 994,6 hPa 0,0 l/m 0 min 0 min 5 W/m 6,3 km/h (2 Bft) 91,30 %
18.11.2016 05:36 6,7 C 6,1 C 5,0 C 92 % 15 lf 994,7 hPa 0,0 l/m 0 min 0 min 5 W/m 10,5 km/h (2 Bft) 93,62 %
18.11.2016 05:38 6,7 C 6,1 C 5,0 C 92 % 15 lf 994,5 hPa 0,0 l/m 0 min 0 min 5 W/m 6,3 km/h (2 Bft) 93,62 %
18.11.2016 05:40 6,7 C 6,1 C 5,0 C 92 % 15 lf 994,3 hPa 0,0 l/m 0 min 0 min 5 W/m 8,4 km/h (2 Bft) 89,36 %
18.11.2016 05:42 6,7 C 6,1 C 5,0 C 92 % 15 lf 994,2 hPa 0,0 l/m 0 min 0 min 0 W/m 4,2 km/h (1 Bft) 95,74 %
18.11.2016 05:44 6,7 C 6,1 C 5,0 C 92 % 15 lf 994,2 hPa 0,0 l/m 0 min 0 min 0 W/m 8,4 km/h (2 Bft) 93,48 %
18.11.2016 05:46 6,6 C 6,1 C 5,0 C 92 % 15 lf 994,3 hPa 0,0 l/m 0 min 0 min 0 W/m 12,6 km/h (3 Bft) 89,36 %
18.11.2016 05:48 6,6 C 6,1 C 5,0 C 92 % 15 lf 994,5 hPa 0,0 l/m 0 min 2 min 0 W/m 4,2 km/h (1 Bft) 93,62 %
18.11.2016 05:50 6,6 C 6,1 C 5,0 C 93 % 15 lf 994,6 hPa 0,0 l/m 0 min 0 min 0 W/m 6,3 km/h (2 Bft) 97,87 %
18.11.2016 05:52 6,6 C 6,1 C 5,0 C 92 % 15 lf 994,8 hPa 0,0 l/m 0 min 0 min 0 W/m 4,2 km/h (1 Bft) 95,74 %
18.11.2016 05:54 6,6 C 6,1 C 5,0 C 93 % 15 lf 994,7 hPa 0,0 l/m 0 min 2 min 0 W/m 4,2 km/h (1 Bft) 91,49 %
18.11.2016 05:56 6,6 C 6,1 C 5,0 C 93 % 15 lf 994,4 hPa 0,0 l/m 0 min 2 min 0 W/m 4,2 km/h (1 Bft) 100,00 %
18.11.2016 05:58 6,5 C 6,1 C 5,0 C 93 % 15 lf 994,4 hPa 0,0 l/m 0 min 2 min 0 W/m 4,2 km/h (1 Bft) 97,87 %
18.11.2016 06:00 6,5 C 6,1 C 5,0 C 93 % 15 lf 994,5 hPa 0,0 l/m 0 min 2 min 0 W/m 6,3 km/h (2 Bft) 100,00 %
18.11.2016 06:02 6,5 C 6,1 C 5,0 C 93 % 15 lf 994,6 hPa 0,0 l/m 0 min 2 min 0 W/m 4,2 km/h (1 Bft) 97,87 %
18.11.2016 06:06 6,4 C 6,1 C 5,0 C 93 % 15 lf 994,3 hPa 0,0 l/m 0 min 2 min 0 W/m 0,0 km/h (0 Bft) 97,87 %
18.11.2016 06:08 6,4 C 6,1 C 5,0 C 93 % 15 lf 994,2 hPa 0,0 l/m 0 min 2 min 0 W/m 2,1 km/h (1 Bft) 97,83 %
18.11.2016 06:10 6,4 C 6,1 C 5,0 C 93 % 15 lf 994,2 hPa 0,0 l/m 0 min 2 min 0 W/m 4,2 km/h (1 Bft) 97,87 %
18.11.2016 06:12 6,4 C 6,1 C 5,0 C 93 % 15 lf 994,4 hPa 0,0 l/m 0 min 0 min 0 W/m 6,3 km/h (2 Bft) 95,74 %
18.11.2016 06:14 6,4 C 6,1 C 5,0 C 93 % 15 lf 994,4 hPa 0,0 l/m 0 min 0 min 0 W/m 8,4 km/h (2 Bft) 97,87 %
18.11.2016 06:16 6,4 C 5,6 C 5,0 C 93 % 15 lf 994,2 hPa 0,0 l/m 0 min 0 min 0 W/m 6,3 km/h (2 Bft) 100,00 %
18.11.2016 06:18 6,4 C 5,6 C 5,0 C 93 % 15 lf 994,4 hPa 0,0 l/m 0 min 2 min 0 W/m 6,3 km/h (2 Bft) 100,00 %
18.11.2016 06:20 6,4 C 6,1 C 5,0 C 93 % 15 lf 994,1 hPa 0,0 l/m 0 min 2 min 0 W/m 6,3 km/h (2 Bft) 100,00 %
18.11.2016 06:24 6,4 C 5,6 C 5,0 C 93 % 15 lf 994,1 hPa 0,0 l/m 0 min 2 min 0 W/m 8,4 km/h (2 Bft) 98,94 %
18.11.2016 06:26 6,4 C 5,6 C 5,0 C 93 % 15 lf 994,2 hPa 0,0 l/m 0 min 2 min 0 W/m 6,3 km/h (2 Bft) 100,00 %
18.11.2016 06:28 6,3 C 5,6 C 5,0 C 94 % 15 lf 994,4 hPa 0,0 l/m 0 min 2 min 0 W/m 6,3 km/h (2 Bft) 100,00 %
18.11.2016 06:30 6,3 C 5,6 C 5,0 C 94 % 15 lf 994,3 hPa 0,0 l/m 0 min 0 min 0 W/m 4,2 km/h (1 Bft) 97,87 %
18.11.2016 06:32 6,3 C 5,6 C 5,0 C 94 % 15 lf 994,3 hPa 0,0 l/m 0 min 0 min 0 W/m 4,2 km/h (1 Bft) 100,00 %
18.11.2016 06:34 6,3 C 5,6 C 5,0 C 94 % 15 lf 994,5 hPa 0,0 l/m 0 min 0 min 0 W/m 6,3 km/h (2 Bft) 100,00 %
18.11.2016 06:36 6,3 C 5,6 C 5,0 C 94 % 15 lf 994,8 hPa 0,0 l/m 0 min 0 min 0 W/m 4,2 km/h (1 Bft) 100,00 %
18.11.2016 06:38 6,3 C 5,6 C 5,0 C 94 % 15 lf 994,7 hPa 0,0 l/m 0 min 0 min 0 W/m 6,3 km/h (2 Bft) 100,00 %
18.11.2016 06:40 6,3 C 5,6 C 5,0 C 94 % 15 lf 994,6 hPa 0,0 l/m 0 min 0 min 0 W/m 4,2 km/h (1 Bft) 100,00 %
18.11.2016 06:42 6,2 C 5,6 C 5,0 C 94 % 15 lf 994,5 hPa 0,0 l/m 0 min 0 min 0 W/m 10,5 km/h (2 Bft) 100,00 %
18.11.2016 06:44 6,2 C 5,6 C 5,0 C 94 % 15 lf 994,6 hPa 0,0 l/m 0 min 0 min 0 W/m 12,6 km/h (3 Bft) 100,00 %
18.11.2016 06:46 6,2 C 6,1 C 5,0 C 94 % 15 lf 994,8 hPa 0,0 l/m 0 min 0 min 0 W/m 8,4 km/h (2 Bft) 95,74 %
18.11.2016 06:48 6,2 C 6,1 C 5,0 C 94 % 15 lf 994,9 hPa 0,0 l/m 0 min 0 min 0 W/m 8,4 km/h (2 Bft) 100,00 %
18.11.2016 06:50 6,2 C 6,1 C 5,0 C 94 % 15 lf 994,9 hPa 0,0 l/m 0 min 0 min 0 W/m 16,7 km/h (3 Bft) 97,87 %
18.11.2016 06:52 6,2 C 6,1 C 5,0 C 94 % 15 lf 994,9 hPa 0,0 l/m 0 min 0 min 0 W/m 10,5 km/h (2 Bft) 97,87 %
18.11.2016 06:54 6,2 C 6,1 C 5,0 C 94 % 15 lf 994,8 hPa 0,0 l/m 0 min 0 min 0 W/m 12,6 km/h (3 Bft) 95,74 %
18.11.2016 06:56 6,2 C 6,1 C 5,0 C 94 % 15 lf 994,7 hPa 0,0 l/m 0 min 0 min 0 W/m 12,6 km/h (3 Bft) 95,65 %
18.11.2016 06:58 6,2 C 6,1 C 5,0 C 94 % 15 lf 994,5 hPa 0,0 l/m 0 min 0 min 0 W/m 10,5 km/h (2 Bft) 97,87 %
18.11.2016 07:00 6,2 C 6,1 C 5,0 C 94 % 15 lf 994,6 hPa 0,0 l/m 0 min 0 min 0 W/m 10,5 km/h (2 Bft) 100,00 %
18.11.2016 07:02 6,2 C 6,1 C 5,0 C 94 % 15 lf 994,6 hPa 0,0 l/m 0 min 2 min 0 W/m 18,8 km/h (3 Bft) 100,00 %
18.11.2016 07:04 6,2 C 6,1 C 5,0 C 94 % 15 lf 994,5 hPa 0,0 l/m 0 min 0 min 0 W/m 8,4 km/h (2 Bft) 97,87 %
18.11.2016 07:06 6,3 C 6,1 C 5,0 C 95 % 15 lf 994,7 hPa 0,0 l/m 0 min 0 min 0 W/m 10,5 km/h (2 Bft) 95,65 %
18.11.2016 07:08 6,2 C 6,1 C 5,0 C 95 % 15 lf 994,8 hPa 0,0 l/m 0 min 0 min 0 W/m 10,5 km/h (2 Bft) 95,74 %
18.11.2016 07:10 6,3 C 6,1 C 5,0 C 95 % 15 lf 994,8 hPa 0,0 l/m 0 min 0 min 0 W/m 8,4 km/h (2 Bft) 97,87 %
18.11.2016 07:12 6,3 C 6,1 C 5,0 C 95 % 15 lf 994,9 hPa 0,0 l/m 0 min 0 min 0 W/m 8,4 km/h (2 Bft) 93,62 %
18.11.2016 07:14 6,3 C 6,1 C 5,0 C 95 % 15 lf 994,7 hPa 0,0 l/m 0 min 0 min 0 W/m 14,6 km/h (3 Bft) 93,62 %
18.11.2016 07:16 6,3 C 6,1 C 5,0 C 95 % 15 lf 995,1 hPa 0,0 l/m 0 min 0 min 0 W/m 14,6 km/h (3 Bft) 91,49 %
18.11.2016 07:18 6,3 C 6,1 C 5,0 C 95 % 15 lf 995,1 hPa 0,0 l/m 0 min 0 min 0 W/m 14,6 km/h (3 Bft) 93,48 %
18.11.2016 07:20 6,3 C 6,1 C 5,0 C 95 % 15 lf 995,1 hPa 0,0 l/m 0 min 0 min 0 W/m 16,7 km/h (3 Bft) 95,74 %
18.11.2016 07:22 6,3 C 6,1 C 5,0 C 95 % 15 lf 995,1 hPa 0,0 l/m 0 min 0 min 0 W/m 14,6 km/h (3 Bft) 93,62 %
18.11.2016 07:24 6,3 C 6,1 C 5,0 C 95 % 15 lf 995,0 hPa 0,0 l/m 0 min 0 min 0 W/m 10,5 km/h (2 Bft) 95,74 %
18.11.2016 07:26 6,3 C 6,1 C 5,0 C 95 % 15 lf 995,1 hPa 0,0 l/m 0 min 0 min 0 W/m 12,6 km/h (3 Bft) 95,74 %
18.11.2016 07:28 6,3 C 6,1 C 5,0 C 95 % 15 lf 995,1 hPa 0,0 l/m 0 min 0 min 0 W/m 16,7 km/h (3 Bft) 93,62 %
18.11.2016 07:30 6,3 C 6,1 C 5,0 C 95 % 15 lf 995,1 hPa 0,0 l/m 0 min 0 min 0 W/m 12,6 km/h (3 Bft) 95,65 %
18.11.2016 07:32 6,3 C 6,1 C 4,4 C 95 % 15 lf 995,0 hPa 0,0 l/m 0 min 0 min 0 W/m 14,6 km/h (3 Bft) 95,74 %
18.11.2016 07:34 6,3 C 6,1 C 4,4 C 95 % 15 lf 994,8 hPa 0,0 l/m 0 min 0 min 0 W/m 14,6 km/h (3 Bft) 95,74 %
18.11.2016 07:36 6,3 C 6,1 C 4,4 C 95 % 15 lf 994,8 hPa 0,0 l/m 0 min 0 min 0 W/m 14,6 km/h (3 Bft) 95,74 %
18.11.2016 07:38 6,3 C 6,1 C 4,4 C 96 % 15 lf 994,5 hPa 0,0 l/m 0 min 0 min 0 W/m 10,5 km/h (2 Bft) 95,74 %
18.11.2016 07:40 6,3 C 6,1 C 4,4 C 96 % 15 lf 994,4 hPa 0,0 l/m 0 min 0 min 0 W/m 10,5 km/h (2 Bft) 97,87 %
18.11.2016 07:42 6,3 C 5,6 C 4,4 C 96 % 15 lf 994,3 hPa 0,0 l/m 0 min 0 min 7 W/m 10,5 km/h (2 Bft) 95,65 %
18.11.2016 07:44 6,3 C 5,6 C 4,4 C 96 % 15 lf 994,3 hPa 0,0 l/m 0 min 0 min 7 W/m 8,4 km/h (2 Bft) 95,74 %
18.11.2016 07:46 6,2 C 5,6 C 3,9 C 96 % 15 lf 994,3 hPa 0,0 l/m 0 min 0 min 7 W/m 8,4 km/h (2 Bft) 95,74 %
18.11.2016 07:48 6,2 C 5,6 C 3,9 C 96 % 15 lf 994,3 hPa 0,0 l/m 0 min 0 min 9 W/m 8,4 km/h (2 Bft) 97,87 %
18.11.2016 07:50 6,2 C 5,6 C 3,9 C 96 % 15 lf 994,3 hPa 0,0 l/m 0 min 0 min 9 W/m 8,4 km/h (2 Bft) 97,87 %
18.11.2016 07:52 6,2 C 5,6 C 3,9 C 96 % 15 lf 994,3 hPa 0,0 l/m 0 min 0 min 9 W/m 8,4 km/h (2 Bft) 97,87 %
18.11.2016 07:54 6,2 C 5,6 C 3,9 C 96 % 15 lf 994,3 hPa 0,0 l/m 0 min 0 min 9 W/m 10,5 km/h (2 Bft) 95,65 %
18.11.2016 07:56 6,1 C 5,6 C 3,9 C 96 % 15 lf 994,4 hPa 0,0 l/m 0 min 0 min 8 W/m 8,4 km/h (2 Bft) 93,62 %
18.11.2016 07:58 6,1 C 5,6 C 3,9 C 96 % 15 lf 994,6 hPa 0,0 l/m 0 min 0 min 7 W/m 10,5 km/h (2 Bft) 100,00 %
18.11.2016 08:00 6,1 C 5,6 C 3,9 C 96 % 15 lf 994,7 hPa 0,0 l/m 0 min 0 min 8 W/m 8,4 km/h (2 Bft) 95,74 %
18.11.2016 08:02 6,1 C 5,6 C 3,9 C 96 % 15 lf 994,9 hPa 0,0 l/m 0 min 0 min 9 W/m 14,6 km/h (3 Bft) 97,87 %
18.11.2016 08:04 6,1 C 5,6 C 4,4 C 96 % 15 lf 994,9 hPa 0,0 l/m 0 min 0 min 9 W/m 12,6 km/h (3 Bft) 97,83 %
18.11.2016 08:06 6,1 C 6,1 C 4,4 C 96 % 15 lf 994,9 hPa 0,0 l/m 0 min 0 min 9 W/m 12,6 km/h (3 Bft) 95,74 %
18.11.2016 08:08 6,0 C 6,1 C 4,4 C 96 % 15 lf 994,9 hPa 0,0 l/m 0 min 2 min 10 W/m 14,6 km/h (3 Bft) 97,87 %
18.11.2016 08:10 6,0 C 6,1 C 4,4 C 96 % 15 lf 994,9 hPa 0,0 l/m 0 min 0 min 11 W/m 16,7 km/h (3 Bft) 97,87 %
18.11.2016 08:12 6,0 C 6,1 C 4,4 C 96 % 15 lf 994,8 hPa 0,0 l/m 0 min 0 min 9 W/m 14,6 km/h (3 Bft) 95,74 %
18.11.2016 08:14 6,1 C 6,1 C 4,4 C 96 % 15 lf 994,9 hPa 0,0 l/m 0 min 2 min 10 W/m 16,7 km/h (3 Bft) 95,74 %
18.11.2016 08:16 6,1 C 6,1 C 4,4 C 96 % 15 lf 994,8 hPa 0,0 l/m 0 min 0 min 11 W/m 14,6 km/h (3 Bft) 97,87 %
18.11.2016 08:18 6,1 C 6,1 C 4,4 C 96 % 15 lf 994,8 hPa 0,0 l/m 0 min 2 min 11 W/m 20,9 km/h (4 Bft) 95,65 %
18.11.2016 08:20 6,1 C 6,1 C 4,4 C 96 % 15 lf 994,7 hPa 0,0 l/m 0 min 2 min 11 W/m 18,8 km/h (3 Bft) 91,49 %
18.11.2016 08:22 6,1 C 6,1 C 4,4 C 96 % 15 lf 994,9 hPa 0,0 l/m 0 min 0 min 11 W/m 10,5 km/h (2 Bft) 100,00 %
18.11.2016 08:24 6,1 C 6,1 C 4,4 C 96 % 15 lf 994,8 hPa 0,0 l/m 0 min 0 min 11 W/m 10,5 km/h (2 Bft) 95,74 %
18.11.2016 08:26 6,2 C 6,1 C 5,0 C 96 % 15 lf 994,9 hPa 0,0 l/m 0 min 0 min 11 W/m 16,7 km/h (3 Bft) 97,87 %
18.11.2016 08:28 6,2 C 6,1 C 5,0 C 96 % 15 lf 995,0 hPa 0,0 l/m 0 min 0 min 12 W/m 12,6 km/h (3 Bft) 97,83 %
18.11.2016 08:30 6,2 C 6,1 C 5,0 C 96 % 15 lf 995,2 hPa 0,0 l/m 0 min 2 min 15 W/m 14,6 km/h (3 Bft) 97,87 %
18.11.2016 08:32 6,2 C 6,1 C 5,0 C 96 % 15 lf 995,2 hPa 0,0 l/m 0 min 0 min 21 W/m 12,6 km/h (3 Bft) 95,74 %
18.11.2016 08:34 6,2 C 6,1 C 5,0 C 96 % 15 lf 995,2 hPa 0,0 l/m 0 min 0 min 26 W/m 14,6 km/h (3 Bft) 95,74 %
18.11.2016 08:36 6,2 C 6,1 C 5,0 C 96 % 15 lf 995,2 hPa 0,0 l/m 0 min 0 min 30 W/m 6,3 km/h (2 Bft) 97,87 %
18.11.2016 08:38 6,3 C 6,7 C 5,0 C 96 % 15 lf 995,2 hPa 0,0 l/m 0 min 0 min 34 W/m 10,5 km/h (2 Bft) 93,62 %
18.11.2016 08:40 6,3 C 6,7 C 5,0 C 97 % 15 lf 995,2 hPa 0,0 l/m 0 min 0 min 32 W/m 10,5 km/h (2 Bft) 93,48 %
18.11.2016 08:42 6,3 C 6,7 C 5,0 C 96 % 15 lf 995,2 hPa 0,0 l/m 0 min 0 min 30 W/m 12,6 km/h (3 Bft) 97,87 %
18.11.2016 08:44 6,3 C 6,7 C 5,6 C 96 % 15 lf 995,2 hPa 0,0 l/m 0 min 0 min 34 W/m 12,6 km/h (3 Bft) 93,62 %
18.11.2016 08:46 6,4 C 6,7 C 5,6 C 97 % 15 lf 995,3 hPa 0,0 l/m 0 min 0 min 36 W/m 14,6 km/h (3 Bft) 93,62 %
18.11.2016 08:48 6,4 C 6,7 C 5,6 C 97 % 15 lf 995,2 hPa 0,0 l/m 0 min 0 min 34 W/m 12,6 km/h (3 Bft) 95,74 %
18.11.2016 08:50 6,4 C 6,7 C 5,6 C 97 % 15 lf 995,1 hPa 0,0 l/m 0 min 0 min 32 W/m 8,4 km/h (2 Bft) 93,62 %
18.11.2016 08:52 6,4 C 6,7 C 5,6 C 97 % 15 lf 995,1 hPa 0,0 l/m 0 min 0 min 34 W/m 8,4 km/h (2 Bft) 93,48 %
18.11.2016 08:54 6,4 C 6,7 C 5,6 C 97 % 15 lf 995,2 hPa 0,0 l/m 0 min 0 min 41 W/m 14,6 km/h (3 Bft) 95,74 %
18.11.2016 08:56 6,5 C 6,7 C 5,6 C 97 % 15 lf 995,3 hPa 0,0 l/m 0 min 0 min 36 W/m 10,5 km/h (2 Bft) 97,87 %
18.11.2016 08:58 6,5 C 6,7 C 5,6 C 97 % 15 lf 995,2 hPa 0,0 l/m 0 min 0 min 27 W/m 18,8 km/h (3 Bft) 95,74 %
18.11.2016 09:00 6,6 C 6,7 C 5,6 C 97 % 15 lf 995,2 hPa 0,0 l/m 0 min 0 min 24 W/m 14,6 km/h (3 Bft) 91,49 %
18.11.2016 09:02 6,6 C 7,2 C 5,6 C 97 % 15 lf 995,1 hPa 0,0 l/m 0 min 0 min 31 W/m 14,6 km/h (3 Bft) 93,62 %
18.11.2016 09:04 6,7 C 7,2 C 5,6 C 97 % 15 lf 995,1 hPa 0,0 l/m 0 min 0 min 52 W/m 12,6 km/h (3 Bft) 95,65 %
18.11.2016 09:06 6,7 C 7,8 C 6,1 C 97 % 15 lf 995,2 hPa 0,0 l/m 2 min 0 min 86 W/m 8,4 km/h (2 Bft) 95,74 %
18.11.2016 09:08 6,8 C 7,8 C 6,1 C 97 % 15 lf 995,1 hPa 0,0 l/m 2 min 0 min 118 W/m 10,5 km/h (2 Bft) 93,62 %
18.11.2016 09:10 6,8 C 7,8 C 6,7 C 97 % 15 lf 995,2 hPa 0,0 l/m 2 min 0 min 140 W/m 12,6 km/h (3 Bft) 95,74 %
18.11.2016 09:12 6,8 C 7,8 C 6,7 C 97 % 15 lf 995,1 hPa 0,0 l/m 2 min 0 min 114 W/m 8,4 km/h (2 Bft) 93,62 %
18.11.2016 09:14 6,9 C 7,8 C 6,7 C 97 % 15 lf 995,3 hPa 0,0 l/m 0 min 0 min 50 W/m 10,5 km/h (2 Bft) 95,65 %
18.11.2016 09:16 6,9 C 7,8 C 6,7 C 97 % 15 lf 995,3 hPa 0,0 l/m 0 min 0 min 40 W/m 8,4 km/h (2 Bft) 93,62 %
18.11.2016 09:18 6,9 C 7,8 C 6,7 C 97 % 15 lf 995,3 hPa 0,0 l/m 0 min 2 min 30 W/m 6,3 km/h (2 Bft) 93,62 %
18.11.2016 09:20 7,0 C 7,8 C 6,1 C 97 % 15 lf 995,1 hPa 0,0 l/m 0 min 2 min 28 W/m 8,4 km/h (2 Bft) 95,74 %
18.11.2016 09:22 7,1 C 7,2 C 6,1 C 97 % 15 lf 995,2 hPa 0,0 l/m 0 min 2 min 29 W/m 6,3 km/h (2 Bft) 95,74 %
18.11.2016 09:24 7,1 C 7,2 C 6,1 C 97 % 15 lf 995,2 hPa 0,0 l/m 0 min 2 min 21 W/m 14,6 km/h (3 Bft) 95,74 %
18.11.2016 09:26 7,1 C 7,2 C 6,1 C 97 % 15 lf 995,3 hPa 0,0 l/m 0 min 2 min 17 W/m 14,6 km/h (3 Bft) 95,65 %
18.11.2016 09:28 7,2 C 7,2 C 6,1 C 97 % 15 lf 995,7 hPa 0,2 l/m 0 min 2 min 13 W/m 12,6 km/h (3 Bft) 95,74 %
18.11.2016 09:30 7,2 C 7,2 C 6,1 C 97 % 15 lf 995,9 hPa 0,0 l/m 0 min 2 min 10 W/m 27,2 km/h (4 Bft) 93,62 %
18.11.2016 09:32 7,1 C 6,7 C 5,0 C 97 % 15 lf 996,0 hPa 0,4 l/m 0 min 2 min 10 W/m 37,7 km/h (5 Bft) 95,74 %
18.11.2016 09:34 6,8 C 5,6 C 4,4 C 97 % 15 lf 996,1 hPa 0,6 l/m 0 min 2 min 11 W/m 41,8 km/h (6 Bft) 95,74 %
18.11.2016 09:36 6,5 C 5,6 C 4,4 C 97 % 15 lf 996,1 hPa 0,2 l/m 0 min 2 min 13 W/m 35,6 km/h (5 Bft) 95,74 %
18.11.2016 09:38 6,4 C 5,6 C 4,4 C 97 % 15 lf 996,1 hPa 0,2 l/m 0 min 2 min 15 W/m 31,4 km/h (5 Bft) 97,83 %
18.11.2016 09:40 6,2 C 5,6 C 4,4 C 97 % 15 lf 996,3 hPa 0,0 l/m 0 min 2 min 18 W/m 31,4 km/h (5 Bft) 93,62 %
18.11.2016 09:42 6,2 C 5,6 C 4,4 C 97 % 15 lf 996,3 hPa 0,0 l/m 0 min 2 min 24 W/m 29,3 km/h (5 Bft) 93,62 %
18.11.2016 09:44 6,1 C 6,1 C 5,0 C 97 % 15 lf 996,4 hPa 0,0 l/m 0 min 2 min 29 W/m 27,2 km/h (4 Bft) 97,87 %
18.11.2016 09:46 6,1 C 5,6 C 5,0 C 97 % 15 lf 996,4 hPa 0,0 l/m 0 min 2 min 31 W/m 50,2 km/h (7 Bft) 95,74 %
18.11.2016 09:48 6,1 C 5,6 C 4,4 C 97 % 15 lf 996,6 hPa 0,0 l/m 0 min 2 min 36 W/m 33,5 km/h (5 Bft) 91,49 %
18.11.2016 09:50 6,1 C 5,6 C 5,0 C 97 % 15 lf 996,6 hPa 0,0 l/m 0 min 2 min 42 W/m 27,2 km/h (4 Bft) 95,65 %
18.11.2016 09:52 6,1 C 5,6 C 4,4 C 97 % 15 lf 996,7 hPa 0,2 l/m 0 min 2 min 41 W/m 43,9 km/h (6 Bft) 91,49 %
18.11.2016 09:54 6,0 C 5,6 C 4,4 C 97 % 15 lf 996,7 hPa 0,0 l/m 0 min 2 min 41 W/m 37,7 km/h (5 Bft) 95,74 %
18.11.2016 09:56 6,0 C 5,6 C 4,4 C 97 % 15 lf 996,7 hPa 0,0 l/m 0 min 2 min 37 W/m 25,1 km/h (4 Bft) 95,74 %
18.11.2016 09:58 5,9 C 5,6 C 4,4 C 96 % 15 lf 996,7 hPa 0,0 l/m 0 min 2 min 36 W/m 41,8 km/h (6 Bft) 93,62 %
18.11.2016 10:00 5,9 C 5,6 C 4,4 C 97 % 15 lf 996,7 hPa 0,0 l/m 0 min 0 min 36 W/m 29,3 km/h (5 Bft) 95,74 %
18.11.2016 10:02 5,8 C 5,6 C 4,4 C 97 % 15 lf 996,7 hPa 0,0 l/m 0 min 0 min 32 W/m 25,1 km/h (4 Bft) 97,83 %
18.11.2016 10:04 5,8 C 5,6 C 4,4 C 96 % 15 lf 996,7 hPa 0,0 l/m 0 min 0 min 30 W/m 31,4 km/h (5 Bft) 93,62 %
18.11.2016 10:06 5,8 C 5,6 C 4,4 C 96 % 15 lf 996,7 hPa 0,0 l/m 0 min 2 min 28 W/m 29,3 km/h (5 Bft) 93,62 %
18.11.2016 10:08 5,7 C 5,6 C 4,4 C 96 % 15 lf 996,6 hPa 0,0 l/m 0 min 2 min 25 W/m 27,2 km/h (4 Bft) 97,87 %
18.11.2016 10:10 5,7 C 5,6 C 4,4 C 96 % 15 lf 996,6 hPa 0,0 l/m 0 min 2 min 28 W/m 20,9 km/h (4 Bft) 97,87 %
18.11.2016 10:12 5,7 C 5,6 C 4,4 C 96 % 15 lf 996,5 hPa 0,0 l/m 0 min 2 min 31 W/m 27,2 km/h (4 Bft) 97,87 %
18.11.2016 10:14 5,7 C 5,6 C 4,4 C 96 % 15 lf 996,4 hPa 0,0 l/m 0 min 2 min 35 W/m 27,2 km/h (4 Bft) 95,65 %
18.11.2016 10:16 5,8 C 5,6 C 4,4 C 96 % 15 lf 996,5 hPa 0,0 l/m 0 min 0 min 41 W/m 18,8 km/h (3 Bft) 93,62 %
18.11.2016 10:18 5,8 C 5,6 C 4,4 C 96 % 15 lf 996,6 hPa 0,0 l/m 0 min 0 min 47 W/m 20,9 km/h (4 Bft) 97,87 %
18.11.2016 10:20 5,8 C 5,6 C 4,4 C 96 % 15 lf 996,6 hPa 0,0 l/m 0 min 0 min 47 W/m 18,8 km/h (3 Bft) 97,87 %
18.11.2016 10:22 5,8 C 5,6 C 4,4 C 96 % 15 lf 996,6 hPa 0,0 l/m 0 min 0 min 42 W/m 25,1 km/h (4 Bft) 97,87 %
18.11.2016 10:24 5,8 C 5,6 C 4,4 C 96 % 15 lf 996,7 hPa 0,0 l/m 0 min 0 min 36 W/m 18,8 km/h (3 Bft) 97,87 %
18.11.2016 10:26 5,8 C 5,6 C 4,4 C 96 % 15 lf 996,7 hPa 0,0 l/m 0 min 0 min 42 W/m 18,8 km/h (3 Bft) 97,83 %
18.11.2016 10:28 5,8 C 5,6 C 4,4 C 95 % 15 lf 996,7 hPa 0,0 l/m 0 min 0 min 42 W/m 16,7 km/h (3 Bft) 95,74 %
18.11.2016 10:30 5,8 C 5,6 C 4,4 C 95 % 15 lf 996,7 hPa 0,0 l/m 0 min 0 min 44 W/m 20,9 km/h (4 Bft) 95,74 %
18.11.2016 10:32 5,8 C 5,6 C 4,4 C 95 % 15 lf 996,7 hPa 0,0 l/m 0 min 0 min 46 W/m 18,8 km/h (3 Bft) 95,74 %
18.11.2016 10:34 5,8 C 5,6 C 4,4 C 95 % 15 lf 996,8 hPa 0,0 l/m 0 min 0 min 47 W/m 27,2 km/h (4 Bft) 95,74 %
18.11.2016 10:36 5,8 C 5,6 C 4,4 C 95 % 15 lf 996,8 hPa 0,0 l/m 0 min 0 min 47 W/m 27,2 km/h (4 Bft) 97,87 %
18.11.2016 10:38 5,8 C 5,6 C 4,4 C 95 % 15 lf 996,9 hPa 0,0 l/m 0 min 0 min 54 W/m 25,1 km/h (4 Bft) 97,83 %
18.11.2016 10:40 5,7 C 5,6 C 4,4 C 95 % 15 lf 996,8 hPa 0,0 l/m 0 min 0 min 73 W/m 27,2 km/h (4 Bft) 97,87 %
18.11.2016 10:42 5,7 C 5,6 C 5,0 C 95 % 15 lf 996,8 hPa 0,0 l/m 0 min 0 min 102 W/m 18,8 km/h (3 Bft) 100,00 %
18.11.2016 10:44 5,7 C 6,1 C 5,0 C 95 % 15 lf 996,8 hPa 0,0 l/m 0 min 0 min 119 W/m 16,7 km/h (3 Bft) 97,87 %
18.11.2016 10:46 5,7 C 6,1 C 5,0 C 95 % 15 lf 996,8 hPa 0,0 l/m 0 min 0 min 120 W/m 23,0 km/h (4 Bft) 100,00 %
18.11.2016 10:48 5,8 C 6,1 C 5,0 C 95 % 15 lf 996,9 hPa 0,0 l/m 0 min 0 min 105 W/m 23,0 km/h (4 Bft) 97,83 %
18.11.2016 10:50 5,8 C 6,1 C 5,0 C 95 % 15 lf 996,8 hPa 0,0 l/m 0 min 0 min 83 W/m 29,3 km/h (5 Bft) 95,74 %
18.11.2016 10:52 5,8 C 6,1 C 5,0 C 95 % 15 lf 996,7 hPa 0,0 l/m 0 min 0 min 81 W/m 20,9 km/h (4 Bft) 97,87 %
18.11.2016 10:54 5,8 C 6,1 C 5,0 C 95 % 15 lf 996,7 hPa 0,0 l/m 0 min 0 min 87 W/m 25,1 km/h (4 Bft) 95,74 %
18.11.2016 10:56 5,8 C 6,1 C 5,0 C 95 % 15 lf 996,6 hPa 0,0 l/m 0 min 0 min 91 W/m 20,9 km/h (4 Bft) 97,87 %
18.11.2016 10:58 5,8 C 6,1 C 5,0 C 95 % 15 lf 996,7 hPa 0,0 l/m 0 min 0 min 91 W/m 18,8 km/h (3 Bft) 95,74 %
18.11.2016 11:00 5,8 C 6,1 C 5,0 C 94 % 15 lf 996,6 hPa 0,0 l/m 0 min 0 min 94 W/m 16,7 km/h (3 Bft) 97,83 %
18.11.2016 11:02 5,8 C 6,7 C 5,0 C 94 % 15 lf 996,6 hPa 0,0 l/m 0 min 0 min 121 W/m 20,9 km/h (4 Bft) 97,87 %
18.11.2016 11:04 5,8 C 6,7 C 5,0 C 94 % 15 lf 996,7 hPa 0,0 l/m 0 min 0 min 102 W/m 16,7 km/h (3 Bft) 95,74 %
18.11.2016 11:06 5,8 C 6,1 C 5,0 C 94 % 15 lf 996,7 hPa 0,0 l/m 0 min 0 min 67 W/m 25,1 km/h (4 Bft) 95,74 %
18.11.2016 11:08 5,9 C 8,3 C 5,0 C 94 % 15 lf 996,6 hPa 0,0 l/m 0 min 2 min 149 W/m 18,8 km/h (3 Bft) 95,74 %
18.11.2016 11:10 5,9 C 10,0 C 5,0 C 94 % 15 lf 996,6 hPa 0,0 l/m 2 min 2 min 278 W/m 16,7 km/h (3 Bft) 93,62 %
18.11.2016 11:12 5,9 C 11,1 C 5,0 C 94 % 15 lf 996,6 hPa 0,0 l/m 2 min 0 min 286 W/m 16,7 km/h (3 Bft) 93,48 %
18.11.2016 11:14 6,1 C 11,1 C 5,0 C 94 % 15 lf 996,6 hPa 0,0 l/m 2 min 0 min 293 W/m 25,1 km/h (4 Bft) 95,74 %
18.11.2016 11:16 6,1 C 10,6 C 5,0 C 95 % 15 lf 996,7 hPa 0,0 l/m 2 min 0 min 300 W/m 20,9 km/h (4 Bft) 91,49 %
18.11.2016 11:18 6,2 C 10,0 C 5,6 C 94 % 15 lf 996,7 hPa 0,0 l/m 2 min 0 min 320 W/m 25,1 km/h (4 Bft) 89,36 %
18.11.2016 11:20 6,3 C 10,6 C 5,6 C 94 % 15 lf 996,7 hPa 0,0 l/m 2 min 0 min 344 W/m 27,2 km/h (4 Bft) 95,74 %
18.11.2016 11:22 6,4 C 10,0 C 5,6 C 95 % 15 lf 996,9 hPa 0,0 l/m 2 min 0 min 363 W/m 16,7 km/h (3 Bft) 97,87 %
18.11.2016 11:24 6,4 C 10,0 C 6,1 C 94 % 15 lf 996,9 hPa 0,0 l/m 2 min 0 min 388 W/m 23,0 km/h (4 Bft) 93,48 %
18.11.2016 11:26 6,6 C 9,4 C 6,1 C 94 % 15 lf 996,9 hPa 0,0 l/m 2 min 0 min 392 W/m 35,6 km/h (5 Bft) 95,74 %
18.11.2016 11:28 6,7 C 8,3 C 6,7 C 94 % 14 lf 997,0 hPa 0,0 l/m 2 min 0 min 255 W/m 31,4 km/h (5 Bft) 97,87 %
18.11.2016 11:30 6,7 C 8,3 C 6,7 C 94 % 13 lf 997,0 hPa 0,0 l/m 2 min 0 min 259 W/m 31,4 km/h (5 Bft) 97,87 %
18.11.2016 11:32 6,8 C 8,9 C 6,7 C 94 % 12 lf 997,0 hPa 0,0 l/m 2 min 0 min 365 W/m 25,1 km/h (4 Bft) 95,74 %
18.11.2016 11:34 6,8 C 9,4 C 6,7 C 94 % 10 lf 997,1 hPa 0,0 l/m 2 min 0 min 432 W/m 23,0 km/h (4 Bft) 89,36 %
18.11.2016 11:36 6,9 C 8,9 C 6,7 C 94 % 9 lf 997,0 hPa 0,0 l/m 2 min 0 min 236 W/m 23,0 km/h (4 Bft) 93,48 %
18.11.2016 11:38 6,9 C 8,9 C 6,1 C 93 % 7 lf 997,0 hPa 0,0 l/m 2 min 0 min 168 W/m 23,0 km/h (4 Bft) 97,87 %
18.11.2016 11:40 7,0 C 10,0 C 6,1 C 93 % 5 lf 997,0 hPa 0,0 l/m 2 min 0 min 383 W/m 23,0 km/h (4 Bft) 97,87 %
18.11.2016 11:42 7,1 C 8,9 C 6,1 C 93 % 4 lf 997,0 hPa 0,0 l/m 2 min 0 min 224 W/m 25,1 km/h (4 Bft) 95,74 %
18.11.2016 11:44 7,1 C 8,3 C 6,1 C 93 % 4 lf 997,0 hPa 0,0 l/m 0 min 0 min 110 W/m 23,0 km/h (4 Bft) 95,74 %
18.11.2016 11:46 7,1 C 7,8 C 5,6 C 92 % 3 lf 997,0 hPa 0,0 l/m 0 min 0 min 120 W/m 35,6 km/h (5 Bft) 93,48 %
18.11.2016 11:48 7,1 C 7,2 C 5,6 C 92 % 3 lf 997,1 hPa 0,0 l/m 0 min 0 min 128 W/m 37,7 km/h (5 Bft) 97,87 %
18.11.2016 11:50 7,0 C 7,8 C 5,6 C 91 % 2 lf 997,2 hPa 0,0 l/m 0 min 0 min 129 W/m 23,0 km/h (4 Bft) 100,00 %
18.11.2016 11:52 7,0 C 8,3 C 6,1 C 91 % 2 lf 997,2 hPa 0,0 l/m 0 min 0 min 144 W/m 20,9 km/h (4 Bft) 89,36 %
18.11.2016 11:54 7,1 C 8,3 C 6,1 C 90 % 1 lf 997,3 hPa 0,0 l/m 2 min 0 min 371 W/m 20,9 km/h (4 Bft) 95,74 %
18.11.2016 11:56 7,1 C 8,9 C 6,7 C 90 % 1 lf 997,4 hPa 0,0 l/m 2 min 0 min 311 W/m 18,8 km/h (3 Bft) 97,87 %
18.11.2016 11:58 7,2 C 8,3 C 6,7 C 90 % 1 lf 997,4 hPa 0,0 l/m 2 min 0 min 292 W/m 20,9 km/h (4 Bft) 97,83 %
18.11.2016 12:00 7,2 C 8,3 C 6,7 C 90 % 0 lf 997,4 hPa 0,0 l/m 2 min 0 min 209 W/m 31,4 km/h (5 Bft) 97,87 %
18.11.2016 12:02 7,3 C 7,8 C 6,7 C 90 % 0 lf 997,4 hPa 0,0 l/m 2 min 0 min 193 W/m 37,7 km/h (5 Bft) 97,87 %
18.11.2016 12:06 7,3 C 7,8 C 6,1 C 90 % 10 lf 997,4 hPa 0,0 l/m 2 min 2 min 203 W/m 33,5 km/h (5 Bft) 97,87 %
18.11.2016 12:08 7,3 C 7,8 C 6,1 C 89 % 10 lf 997,3 hPa 0,0 l/m 2 min 2 min 240 W/m 29,3 km/h (5 Bft) 95,74 %
18.11.2016 12:10 7,3 C 7,8 C 6,1 C 89 % 9 lf 997,4 hPa 0,0 l/m 2 min 2 min 211 W/m 23,0 km/h (4 Bft) 97,83 %
18.11.2016 12:12 7,4 C 8,3 C 6,1 C 90 % 10 lf 997,3 hPa 0,0 l/m 2 min 2 min 237 W/m 23,0 km/h (4 Bft) 100,00 %
18.11.2016 12:14 7,4 C 8,9 C 6,7 C 90 % 10 lf 997,3 hPa 0,0 l/m 2 min 2 min 322 W/m 27,2 km/h (4 Bft) 95,74 %
18.11.2016 12:16 7,4 C 8,3 C 6,1 C 90 % 9 lf 997,4 hPa 0,0 l/m 2 min 2 min 301 W/m 23,0 km/h (4 Bft) 97,87 %
18.11.2016 12:18 7,5 C 7,8 C 6,1 C 90 % 7 lf 997,4 hPa 0,0 l/m 0 min 0 min 156 W/m 25,1 km/h (4 Bft) 95,74 %
18.11.2016 12:20 7,5 C 7,8 C 6,1 C 90 % 4 lf 997,4 hPa 0,0 l/m 0 min 2 min 127 W/m 31,4 km/h (5 Bft) 100,00 %
18.11.2016 12:22 7,4 C 7,8 C 6,1 C 90 % 4 lf 997,3 hPa 0,0 l/m 2 min 2 min 168 W/m 33,5 km/h (5 Bft) 100,00 %
18.11.2016 12:24 7,4 C 8,3 C 6,1 C 89 % 4 lf 997,4 hPa 0,0 l/m 2 min 2 min 247 W/m 35,6 km/h (5 Bft) 100,00 %
18.11.2016 12:26 7,5 C 8,3 C 6,1 C 89 % 3 lf 997,5 hPa 0,0 l/m 2 min 2 min 222 W/m 31,4 km/h (5 Bft) 95,74 %
18.11.2016 12:28 7,4 C 8,3 C 6,1 C 89 % 2 lf 997,5 hPa 0,0 l/m 0 min 0 min 154 W/m 25,1 km/h (4 Bft) 93,62 %
18.11.2016 12:30 7,4 C 7,8 C 5,6 C 89 % 0 lf 997,5 hPa 0,0 l/m 0 min 0 min 98 W/m 27,2 km/h (4 Bft) 93,62 %
18.11.2016 12:32 7,4 C 7,2 C 5,6 C 89 % 0 lf 997,6 hPa 0,0 l/m 0 min 0 min 81 W/m 37,7 km/h (5 Bft) 93,62 %
18.11.2016 12:34 7,4 C 7,2 C 5,6 C 88 % 0 lf 997,6 hPa 0,0 l/m 0 min 2 min 69 W/m 37,7 km/h (5 Bft) 93,48 %
18.11.2016 12:36 7,4 C 6,7 C 5,6 C 88 % 0 lf 997,7 hPa 0,0 l/m 0 min 0 min 69 W/m 25,1 km/h (4 Bft) 95,74 %
18.11.2016 12:38 7,3 C 7,2 C 5,6 C 88 % 0 lf 997,6 hPa 0,0 l/m 0 min 0 min 77 W/m 25,1 km/h (4 Bft) 95,74 %
18.11.2016 12:40 7,3 C 7,2 C 5,6 C 88 % 0 lf 997,7 hPa 0,0 l/m 0 min 0 min 87 W/m 27,2 km/h (4 Bft) 93,62 %
18.11.2016 12:42 7,3 C 7,2 C 5,6 C 88 % 0 lf 997,7 hPa 0,0 l/m 0 min 0 min 89 W/m 33,5 km/h (5 Bft) 95,74 %
18.11.2016 12:44 7,3 C 7,2 C 5,6 C 88 % 0 lf 997,7 hPa 0,0 l/m 0 min 0 min 127 W/m 31,4 km/h (5 Bft) 93,62 %
18.11.2016 12:46 7,3 C 8,3 C 6,1 C 88 % 0 lf 997,8 hPa 0,0 l/m 0 min 0 min 153 W/m 25,1 km/h (4 Bft) 93,48 %
18.11.2016 12:48 7,3 C 10,0 C 6,7 C 88 % 0 lf 997,7 hPa 0,0 l/m 0 min 0 min 153 W/m 20,9 km/h (4 Bft) 95,74 %
18.11.2016 12:50 7,4 C 9,4 C 6,7 C 88 % 0 lf 997,7 hPa 0,0 l/m 0 min 0 min 162 W/m 18,8 km/h (3 Bft) 93,62 %
18.11.2016 12:52 7,4 C 10,0 C 7,2 C 88 % 0 lf 997,7 hPa 0,0 l/m 2 min 0 min 239 W/m 20,9 km/h (4 Bft) 93,62 %
18.11.2016 12:54 7,5 C 9,4 C 7,2 C 88 % 0 lf 997,7 hPa 0,0 l/m 0 min 0 min 159 W/m 20,9 km/h (4 Bft) 93,62 %
18.11.2016 12:56 7,6 C 9,4 C 7,2 C 88 % 0 lf 997,7 hPa 0,0 l/m 0 min 0 min 122 W/m 20,9 km/h (4 Bft) 93,62 %
18.11.2016 12:58 7,6 C 9,4 C 7,2 C 89 % 0 lf 997,8 hPa 0,0 l/m 2 min 0 min 170 W/m 25,1 km/h (4 Bft) 93,48 %
18.11.2016 13:00 7,6 C 9,4 C 7,2 C 89 % 0 lf 997,7 hPa 0,0 l/m 0 min 0 min 145 W/m 25,1 km/h (4 Bft) 91,49 %
18.11.2016 13:02 7,7 C 8,9 C 6,7 C 89 % 0 lf 997,7 hPa 0,0 l/m 0 min 0 min 105 W/m 31,4 km/h (5 Bft) 93,62 %
18.11.2016 13:04 7,7 C 9,4 C 6,7 C 88 % 0 lf 997,8 hPa 0,0 l/m 0 min 0 min 123 W/m 25,1 km/h (4 Bft) 91,49 %
18.11.2016 13:06 7,7 C 10,0 C 6,7 C 88 % 0 lf 997,7 hPa 0,0 l/m 2 min 0 min 192 W/m 23,0 km/h (4 Bft) 93,62 %
18.11.2016 13:08 7,7 C 10,0 C 6,7 C 88 % 0 lf 997,6 hPa 0,0 l/m 2 min 0 min 305 W/m 29,3 km/h (5 Bft) 91,30 %
18.11.2016 13:10 7,8 C 10,6 C 6,7 C 88 % 0 lf 997,6 hPa 0,0 l/m 2 min 0 min 302 W/m 33,5 km/h (5 Bft) 93,62 %
18.11.2016 13:12 7,8 C 11,1 C 6,7 C 88 % 0 lf 997,6 hPa 0,0 l/m 2 min 0 min 314 W/m 35,6 km/h (5 Bft) 93,62 %
18.11.2016 13:14 7,9 C 11,1 C 7,2 C 88 % 0 lf 997,6 hPa 0,0 l/m 2 min 0 min 375 W/m 29,3 km/h (5 Bft) 95,74 %
18.11.2016 13:16 7,9 C 10,6 C 7,2 C 87 % 0 lf 997,7 hPa 0,0 l/m 2 min 0 min 230 W/m 41,8 km/h (6 Bft) 91,49 %
18.11.2016 13:18 7,9 C 9,4 C 7,2 C 87 % 0 lf 997,7 hPa 0,0 l/m 0 min 0 min 155 W/m 33,5 km/h (5 Bft) 91,49 %
18.11.2016 13:20 8,0 C 10,6 C 7,2 C 87 % 0 lf 997,7 hPa 0,0 l/m 2 min 0 min 195 W/m 27,2 km/h (4 Bft) 91,30 %
18.11.2016 13:22 8,1 C 11,7 C 7,2 C 87 % 0 lf 997,5 hPa 0,0 l/m 2 min 0 min 245 W/m 33,5 km/h (5 Bft) 95,74 %
18.11.2016 13:24 8,1 C 11,7 C 7,2 C 87 % 0 lf 997,5 hPa 0,0 l/m 2 min 0 min 213 W/m 29,3 km/h (5 Bft) 97,87 %
18.11.2016 13:26 8,2 C 11,7 C 7,2 C 86 % 0 lf 997,4 hPa 0,0 l/m 2 min 0 min 299 W/m 27,2 km/h (4 Bft) 97,87 %
18.11.2016 13:28 8,2 C 11,1 C 7,2 C 86 % 0 lf 997,5 hPa 0,0 l/m 2 min 0 min 202 W/m 31,4 km/h (5 Bft) 95,74 %
18.11.2016 13:30 8,2 C 10,6 C 7,2 C 86 % 0 lf 997,5 hPa 0,0 l/m 2 min 0 min 171 W/m 35,6 km/h (5 Bft) 97,87 %
18.11.2016 13:32 8,2 C 10,6 C 7,2 C 85 % 0 lf 997,6 hPa 0,0 l/m 2 min 0 min 178 W/m 37,7 km/h (5 Bft) 97,83 %
18.11.2016 13:34 8,3 C 12,2 C 7,2 C 85 % 0 lf 997,5 hPa 0,0 l/m 2 min 0 min 259 W/m 41,8 km/h (6 Bft) 97,87 %
18.11.2016 13:36 8,3 C 12,2 C 7,8 C 85 % 0 lf 997,5 hPa 0,0 l/m 2 min 0 min 338 W/m 35,6 km/h (5 Bft) 97,87 %
18.11.2016 13:38 8,4 C 12,8 C 7,8 C 85 % 0 lf 997,6 hPa 0,0 l/m 2 min 0 min 284 W/m 33,5 km/h (5 Bft) 100,00 %
18.11.2016 13:40 8,4 C 13,3 C 8,3 C 85 % 0 lf 997,7 hPa 0,0 l/m 2 min 0 min 369 W/m 33,5 km/h (5 Bft) 97,87 %
18.11.2016 13:42 8,6 C 12,8 C 7,8 C 85 % 0 lf 997,7 hPa 0,0 l/m 2 min 0 min 304 W/m 33,5 km/h (5 Bft) 95,74 %
18.11.2016 13:44 8,6 C 12,8 C 7,8 C 84 % 0 lf 997,7 hPa 0,0 l/m 2 min 0 min 289 W/m 35,6 km/h (5 Bft) 100,00 %
18.11.2016 13:46 8,6 C 11,1 C 7,2 C 83 % 0 lf 997,9 hPa 0,0 l/m 2 min 0 min 189 W/m 43,9 km/h (6 Bft) 100,00 %
18.11.2016 13:48 8,6 C 11,1 C 7,2 C 83 % 0 lf 997,9 hPa 0,0 l/m 2 min 0 min 235 W/m 37,7 km/h (5 Bft) 91,49 %
18.11.2016 13:50 8,6 C 10,6 C 7,2 C 83 % 0 lf 997,9 hPa 0,0 l/m 2 min 0 min 178 W/m 33,5 km/h (5 Bft) 100,00 %
18.11.2016 13:52 8,6 C 10,0 C 7,2 C 83 % 0 lf 997,8 hPa 0,0 l/m 0 min 0 min 121 W/m 35,6 km/h (5 Bft) 97,87 %
18.11.2016 13:54 8,6 C 9,4 C 7,2 C 83 % 0 lf 997,7 hPa 0,0 l/m 0 min 0 min 131 W/m 35,6 km/h (5 Bft) 100,00 %
18.11.2016 13:56 8,6 C 10,0 C 7,2 C 82 % 0 lf 997,7 hPa 0,0 l/m 2 min 0 min 141 W/m 31,4 km/h (5 Bft) 100,00 %
18.11.2016 13:58 8,5 C 9,4 C 7,2 C 83 % 0 lf 997,7 hPa 0,0 l/m 0 min 0 min 111 W/m 27,2 km/h (4 Bft) 97,87 %
18.11.2016 14:00 8,5 C 10,0 C 6,7 C 83 % 0 lf 997,7 hPa 0,0 l/m 0 min 0 min 92 W/m 37,7 km/h (5 Bft) 97,87 %
18.11.2016 14:02 8,4 C 10,0 C 7,2 C 82 % 0 lf 997,8 hPa 0,0 l/m 0 min 0 min 130 W/m 29,3 km/h (5 Bft) 100,00 %
18.11.2016 14:04 8,4 C 10,0 C 7,2 C 83 % 0 lf 997,9 hPa 0,0 l/m 0 min 0 min 112 W/m 20,9 km/h (4 Bft) 100,00 %
18.11.2016 14:06 8,4 C 9,4 C 7,2 C 83 % 0 lf 997,9 hPa 0,0 l/m 0 min 0 min 103 W/m 35,6 km/h (5 Bft) 100,00 %
18.11.2016 14:08 8,4 C 9,4 C 7,2 C 83 % 0 lf 997,9 hPa 0,0 l/m 0 min 0 min 105 W/m 37,7 km/h (5 Bft) 97,83 %
18.11.2016 14:10 8,4 C 9,4 C 7,2 C 83 % 0 lf 997,9 hPa 0,0 l/m 2 min 0 min 139 W/m 25,1 km/h (4 Bft) 91,49 %
18.11.2016 14:12 8,3 C 11,1 C 7,2 C 83 % 0 lf 997,8 hPa 0,0 l/m 2 min 0 min 173 W/m 25,1 km/h (4 Bft) 97,87 %
18.11.2016 14:14 8,4 C 11,7 C 7,8 C 83 % 0 lf 997,9 hPa 0,0 l/m 2 min 0 min 199 W/m 25,1 km/h (4 Bft) 95,74 %
18.11.2016 14:16 8,4 C 11,7 C 7,8 C 83 % 0 lf 997,8 hPa 0,0 l/m 2 min 0 min 160 W/m 25,1 km/h (4 Bft) 97,87 %
18.11.2016 14:18 8,4 C 10,6 C 7,8 C 84 % 0 lf 997,9 hPa 0,0 l/m 0 min 0 min 126 W/m 23,0 km/h (4 Bft) 95,65 %
18.11.2016 14:20 8,5 C 12,2 C 7,8 C 83 % 0 lf 997,9 hPa 0,0 l/m 2 min 0 min 157 W/m 29,3 km/h (5 Bft) 97,87 %
18.11.2016 14:22 8,5 C 13,9 C 7,8 C 83 % 0 lf 997,9 hPa 0,0 l/m 2 min 0 min 239 W/m 29,3 km/h (5 Bft) 97,87 %
18.11.2016 14:24 8,6 C 12,8 C 7,2 C 83 % 0 lf 997,8 hPa 0,0 l/m 2 min 0 min 193 W/m 33,5 km/h (5 Bft) 95,74 %
18.11.2016 14:26 8,6 C 12,2 C 7,2 C 82 % 0 lf 997,8 hPa 0,0 l/m 0 min 0 min 62 W/m 31,4 km/h (5 Bft) 95,74 %
18.11.2016 14:28 8,6 C 12,8 C 7,2 C 82 % 0 lf 997,8 hPa 0,0 l/m 0 min 0 min 120 W/m 23,0 km/h (4 Bft) 95,74 %
18.11.2016 14:30 8,6 C 12,2 C 7,2 C 82 % 0 lf 997,9 hPa 0,0 l/m 2 min 0 min 171 W/m 29,3 km/h (5 Bft) 97,83 %
18.11.2016 14:32 8,6 C 11,7 C 6,7 C 82 % 0 lf 998,0 hPa 0,0 l/m 0 min 0 min 58 W/m 20,9 km/h (4 Bft) 97,87 %
18.11.2016 14:34 8,5 C 12,8 C 7,2 C 82 % 0 lf 997,9 hPa 0,0 l/m 2 min 0 min 176 W/m 27,2 km/h (4 Bft) 97,87 %
18.11.2016 14:36 8,5 C 12,2 C 7,2 C 82 % 0 lf 998,0 hPa 0,0 l/m 2 min 0 min 156 W/m 23,0 km/h (4 Bft) 97,87 %
18.11.2016 14:38 8,5 C 11,7 C 6,7 C 82 % 0 lf 998,0 hPa 0,0 l/m 2 min 0 min 133 W/m 25,1 km/h (4 Bft) 95,74 %
18.11.2016 14:40 8,5 C 10,6 C 6,7 C 82 % 0 lf 998,0 hPa 0,0 l/m 0 min 0 min 100 W/m 27,2 km/h (4 Bft) 95,74 %
18.11.2016 14:42 8,4 C 9,4 C 6,7 C 82 % 0 lf 998,1 hPa 0,0 l/m 0 min 0 min 77 W/m 20,9 km/h (4 Bft) 97,83 %
18.11.2016 14:44 8,4 C 9,4 C 6,7 C 82 % 0 lf 998,0 hPa 0,0 l/m 0 min 0 min 55 W/m 20,9 km/h (4 Bft) 95,74 %
18.11.2016 14:46 8,4 C 8,9 C 6,7 C 81 % 0 lf 998,1 hPa 0,0 l/m 0 min 0 min 59 W/m 20,9 km/h (4 Bft) 95,74 %
18.11.2016 14:48 8,3 C 8,3 C 6,7 C 81 % 0 lf 998,0 hPa 0,0 l/m 0 min 0 min 58 W/m 23,0 km/h (4 Bft) 95,74 %
18.11.2016 14:50 8,3 C 8,3 C 6,7 C 82 % 0 lf 998,1 hPa 0,0 l/m 0 min 0 min 65 W/m 20,9 km/h (4 Bft) 97,87 %
18.11.2016 14:52 8,3 C 8,9 C 7,2 C 82 % 0 lf 998,1 hPa 0,0 l/m 0 min 0 min 102 W/m 20,9 km/h (4 Bft) 91,49 %
18.11.2016 14:54 8,3 C 9,4 C 7,2 C 82 % 0 lf 998,0 hPa 0,0 l/m 2 min 2 min 170 W/m 16,7 km/h (3 Bft) 97,83 %
18.11.2016 14:56 8,3 C 9,4 C 7,2 C 82 % 0 lf 998,1 hPa 0,0 l/m 2 min 0 min 141 W/m 18,8 km/h (3 Bft) 95,74 %
18.11.2016 14:58 8,3 C 9,4 C 7,2 C 82 % 0 lf 998,1 hPa 0,0 l/m 2 min 0 min 174 W/m 18,8 km/h (3 Bft) 100,00 %
18.11.2016 15:00 8,3 C 9,4 C 7,2 C 82 % 0 lf 998,1 hPa 0,0 l/m 2 min 0 min 173 W/m 18,8 km/h (3 Bft) 97,87 %
18.11.2016 15:02 8,3 C 9,4 C 7,8 C 83 % 0 lf 998,1 hPa 0,0 l/m 2 min 0 min 165 W/m 25,1 km/h (4 Bft) 97,87 %
18.11.2016 15:04 8,4 C 9,4 C 7,8 C 82 % 0 lf 998,1 hPa 0,0 l/m 2 min 0 min 138 W/m 33,5 km/h (5 Bft) 93,62 %
18.11.2016 15:06 8,4 C 9,4 C 7,2 C 82 % 0 lf 998,1 hPa 0,0 l/m 2 min 0 min 125 W/m 25,1 km/h (4 Bft) 97,83 %
18.11.2016 15:08 8,4 C 9,4 C 7,2 C 82 % 0 lf 998,2 hPa 0,0 l/m 2 min 0 min 115 W/m 18,8 km/h (3 Bft) 93,62 %
18.11.2016 15:10 8,5 C 9,4 C 7,2 C 82 % 0 lf 998,1 hPa 0,0 l/m 0 min 0 min 52 W/m 23,0 km/h (4 Bft) 97,87 %
18.11.2016 15:12 8,5 C 8,9 C 7,2 C 81 % 0 lf 998,1 hPa 0,0 l/m 0 min 0 min 39 W/m 35,6 km/h (5 Bft) 100,00 %
18.11.2016 15:14 8,5 C 8,9 C 6,7 C 80 % 0 lf 998,1 hPa 0,0 l/m 0 min 0 min 35 W/m 25,1 km/h (4 Bft) 95,74 %
18.11.2016 15:16 8,5 C 8,9 C 6,7 C 80 % 0 lf 998,2 hPa 0,0 l/m 0 min 0 min 35 W/m 29,3 km/h (5 Bft) 95,74 %
18.11.2016 15:18 8,4 C 8,3 C 6,7 C 80 % 0 lf 998,2 hPa 0,0 l/m 0 min 0 min 40 W/m 14,6 km/h (3 Bft) 97,83 %
18.11.2016 15:20 8,4 C 8,3 C 6,7 C 80 % 0 lf 998,2 hPa 0,0 l/m 0 min 0 min 41 W/m 33,5 km/h (5 Bft) 97,87 %
18.11.2016 15:22 8,4 C 8,3 C 6,7 C 79 % 0 lf 998,2 hPa 0,0 l/m 0 min 0 min 38 W/m 29,3 km/h (5 Bft) 93,62 %
18.11.2016 15:24 8,4 C 8,3 C 6,7 C 79 % 0 lf 998,2 hPa 0,0 l/m 0 min 0 min 47 W/m 41,8 km/h (6 Bft) 95,74 %
18.11.2016 15:26 8,4 C 8,3 C 6,7 C 79 % 0 lf 998,1 hPa 0,0 l/m 0 min 0 min 58 W/m 20,9 km/h (4 Bft) 95,74 %
18.11.2016 15:28 8,3 C 8,9 C 6,7 C 80 % 0 lf 998,2 hPa 0,0 l/m 2 min 0 min 90 W/m 27,2 km/h (4 Bft) 97,87 %
18.11.2016 15:30 8,3 C 8,3 C 6,7 C 80 % 0 lf 998,3 hPa 0,0 l/m 2 min 2 min 77 W/m 31,4 km/h (5 Bft) 97,83 %
18.11.2016 15:32 8,3 C 8,3 C 6,7 C 80 % 0 lf 998,3 hPa 0,0 l/m 2 min 0 min 69 W/m 29,3 km/h (5 Bft) 97,87 %
18.11.2016 15:34 8,3 C 8,3 C 6,7 C 80 % 0 lf 998,3 hPa 0,0 l/m 0 min 0 min 64 W/m 35,6 km/h (5 Bft) 93,62 %
18.11.2016 15:36 8,3 C 8,3 C 6,7 C 79 % 0 lf 998,2 hPa 0,0 l/m 0 min 0 min 59 W/m 33,5 km/h (5 Bft) 91,49 %
18.11.2016 15:38 8,2 C 8,3 C 6,7 C 79 % 0 lf 998,3 hPa 0,0 l/m 0 min 0 min 55 W/m 29,3 km/h (5 Bft) 97,87 %
18.11.2016 15:40 8,2 C 8,3 C 6,7 C 79 % 0 lf 998,3 hPa 0,0 l/m 0 min 0 min 44 W/m 25,1 km/h (4 Bft) 97,83 %
18.11.2016 15:42 8,2 C 8,3 C 6,7 C 79 % 0 lf 998,3 hPa 0,0 l/m 0 min 0 min 40 W/m 27,2 km/h (4 Bft) 97,87 %
18.11.2016 15:44 8,2 C 8,3 C 6,1 C 80 % 0 lf 998,4 hPa 0,0 l/m 0 min 0 min 42 W/m 27,2 km/h (4 Bft) 97,87 %
18.11.2016 15:46 8,2 C 8,3 C 6,1 C 80 % 0 lf 998,5 hPa 0,0 l/m 0 min 0 min 48 W/m 20,9 km/h (4 Bft) 97,87 %
18.11.2016 15:48 8,2 C 8,3 C 6,1 C 80 % 0 lf 998,5 hPa 0,0 l/m 0 min 0 min 46 W/m 20,9 km/h (4 Bft) 95,74 %
18.11.2016 15:50 8,2 C 8,3 C 6,1 C 80 % 0 lf 998,5 hPa 0,0 l/m 0 min 0 min 42 W/m 18,8 km/h (3 Bft) 93,62 %
18.11.2016 15:52 8,2 C 8,3 C 6,1 C 81 % 0 lf 998,5 hPa 0,0 l/m 0 min 0 min 41 W/m 20,9 km/h (4 Bft) 97,87 %
18.11.2016 15:54 8,1 C 8,3 C 6,1 C 81 % 0 lf 998,5 hPa 0,0 l/m 0 min 0 min 39 W/m 23,0 km/h (4 Bft) 97,83 %
18.11.2016 15:56 8,1 C 7,8 C 6,1 C 81 % 0 lf 998,6 hPa 0,0 l/m 0 min 0 min 37 W/m 14,6 km/h (3 Bft) 97,87 %
18.11.2016 15:58 8,1 C 7,8 C 6,1 C 81 % 0 lf 998,5 hPa 0,0 l/m 0 min 0 min 30 W/m 12,6 km/h (3 Bft) 95,74 %
18.11.2016 16:00 8,1 C 7,8 C 6,1 C 81 % 0 lf 998,5 hPa 0,0 l/m 0 min 0 min 25 W/m 16,7 km/h (3 Bft) 95,74 %
18.11.2016 16:02 8,1 C 7,8 C 6,1 C 81 % 0 lf 998,5 hPa 0,0 l/m 0 min 0 min 22 W/m 16,7 km/h (3 Bft) 95,74 %
18.11.2016 16:04 8,1 C 7,8 C 6,1 C 82 % 0 lf 998,4 hPa 0,0 l/m 0 min 0 min 22 W/m 18,8 km/h (3 Bft) 95,65 %
18.11.2016 16:06 8,0 C 7,8 C 6,1 C 82 % 0 lf 998,3 hPa 0,0 l/m 0 min 0 min 23 W/m 16,7 km/h (3 Bft) 93,62 %
18.11.2016 16:08 8,0 C 7,8 C 6,7 C 82 % 0 lf 998,3 hPa 0,0 l/m 0 min 0 min 25 W/m 18,8 km/h (3 Bft) 93,62 %
18.11.2016 16:10 8,0 C 8,3 C 6,7 C 82 % 0 lf 998,4 hPa 0,0 l/m 2 min 0 min 29 W/m 16,7 km/h (3 Bft) 93,62 %
18.11.2016 16:12 8,0 C 8,3 C 6,7 C 82 % 0 lf 998,4 hPa 0,0 l/m 2 min 2 min 42 W/m 18,8 km/h (3 Bft) 93,62 %
18.11.2016 16:14 8,0 C 8,3 C 6,7 C 82 % 1 lf 998,4 hPa 0,0 l/m 2 min 2 min 40 W/m 25,1 km/h (4 Bft) 93,62 %
18.11.2016 16:16 8,0 C 8,3 C 6,7 C 81 % 1 lf 998,4 hPa 0,0 l/m 2 min 2 min 29 W/m 33,5 km/h (5 Bft) 93,48 %
18.11.2016 16:18 8,0 C 8,3 C 6,1 C 81 % 1 lf 998,5 hPa 0,0 l/m 2 min 2 min 21 W/m 33,5 km/h (5 Bft) 95,74 %
18.11.2016 16:20 8,0 C 7,8 C 6,1 C 81 % 0 lf 998,5 hPa 0,0 l/m 2 min 2 min 19 W/m 35,6 km/h (5 Bft) 97,87 %
18.11.2016 16:22 8,0 C 8,3 C 6,1 C 80 % 0 lf 998,5 hPa 0,0 l/m 2 min 0 min 21 W/m 46,0 km/h (6 Bft) 97,87 %
18.11.2016 16:24 8,0 C 8,3 C 6,1 C 79 % 0 lf 998,5 hPa 0,0 l/m 0 min 0 min 18 W/m 33,5 km/h (5 Bft) 91,49 %
18.11.2016 16:26 8,0 C 7,8 C 6,1 C 79 % 0 lf 998,5 hPa 0,0 l/m 0 min 0 min 16 W/m 25,1 km/h (4 Bft) 97,87 %
18.11.2016 16:28 8,0 C 7,8 C 6,1 C 79 % 0 lf 998,5 hPa 0,0 l/m 0 min 0 min 14 W/m 25,1 km/h (4 Bft) 93,48 %
18.11.2016 16:30 7,9 C 7,8 C 6,1 C 79 % 0 lf 998,5 hPa 0,0 l/m 0 min 0 min 12 W/m 23,0 km/h (4 Bft) 95,74 %
18.11.2016 16:32 7,9 C 7,8 C 6,1 C 79 % 0 lf 998,6 hPa 0,0 l/m 0 min 0 min 12 W/m 25,1 km/h (4 Bft) 97,87 %
18.11.2016 16:34 7,9 C 7,8 C 6,1 C 79 % 3 lf 998,7 hPa 0,0 l/m 0 min 2 min 12 W/m 23,0 km/h (4 Bft) 93,62 %
18.11.2016 16:36 7,9 C 7,2 C 5,6 C 79 % 11 lf 998,8 hPa 0,0 l/m 0 min 2 min 12 W/m 20,9 km/h (4 Bft) 97,87 %
18.11.2016 16:38 7,9 C 7,2 C 5,0 C 79 % 10 lf 998,7 hPa 0,0 l/m 0 min 2 min 12 W/m 29,3 km/h (5 Bft) 97,87 %
18.11.2016 16:40 7,8 C 6,7 C 5,0 C 80 % 7 lf 998,7 hPa 0,0 l/m 0 min 2 min 11 W/m 31,4 km/h (5 Bft) 95,65 %
18.11.2016 16:42 7,8 C 6,7 C 4,4 C 81 % 4 lf 998,8 hPa 0,0 l/m 0 min 0 min 11 W/m 18,8 km/h (3 Bft) 95,74 %
18.11.2016 16:44 7,7 C 6,7 C 4,4 C 81 % 3 lf 998,8 hPa 0,0 l/m 0 min 0 min 11 W/m 16,7 km/h (3 Bft) 97,87 %
18.11.2016 16:46 7,7 C 6,7 C 5,0 C 81 % 2 lf 998,8 hPa 0,0 l/m 0 min 0 min 11 W/m 20,9 km/h (4 Bft) 93,62 %
18.11.2016 16:48 7,7 C 6,7 C 4,4 C 82 % 1 lf 998,8 hPa 0,0 l/m 0 min 0 min 10 W/m 23,0 km/h (4 Bft) 93,62 %
18.11.2016 16:50 7,6 C 6,7 C 4,4 C 82 % 0 lf 998,8 hPa 0,0 l/m 0 min 0 min 9 W/m 14,6 km/h (3 Bft) 93,62 %
18.11.2016 16:52 7,6 C 6,7 C 4,4 C 82 % 0 lf 998,8 hPa 0,0 l/m 0 min 0 min 9 W/m 14,6 km/h (3 Bft) 97,83 %
18.11.2016 16:54 7,5 C 6,7 C 4,4 C 82 % 0 lf 998,8 hPa 0,0 l/m 0 min 0 min 9 W/m 12,6 km/h (3 Bft) 97,87 %
18.11.2016 16:56 7,4 C 6,7 C 4,4 C 83 % 0 lf 998,8 hPa 0,0 l/m 0 min 0 min 8 W/m 14,6 km/h (3 Bft) 93,62 %
18.11.2016 16:58 7,4 C 6,7 C 4,4 C 83 % 0 lf 998,8 hPa 0,0 l/m 0 min 0 min 0 W/m 8,4 km/h (2 Bft) 91,49 %
18.11.2016 17:00 7,3 C 6,1 C 4,4 C 83 % 0 lf 998,9 hPa 0,0 l/m 0 min 0 min 0 W/m 10,5 km/h (2 Bft) 95,74 %
18.11.2016 17:02 7,3 C 6,1 C 4,4 C 83 % 0 lf 998,9 hPa 0,0 l/m 0 min 0 min 0 W/m 12,6 km/h (3 Bft) 91,49 %
18.11.2016 17:04 7,3 C 6,1 C 4,4 C 83 % 0 lf 998,9 hPa 0,0 l/m 0 min 0 min 0 W/m 14,6 km/h (3 Bft) 93,48 %
18.11.2016 17:06 7,2 C 6,1 C 4,4 C 83 % 0 lf 998,9 hPa 0,0 l/m 0 min 0 min 0 W/m 14,6 km/h (3 Bft) 95,74 %
18.11.2016 17:08 7,2 C 6,7 C 4,4 C 83 % 0 lf 999,0 hPa 0,0 l/m 0 min 0 min 0 W/m 14,6 km/h (3 Bft) 95,74 %
18.11.2016 17:10 7,1 C 6,7 C 4,4 C 84 % 0 lf 999,0 hPa 0,0 l/m 0 min 0 min 0 W/m 12,6 km/h (3 Bft) 91,49 %
18.11.2016 17:12 7,1 C 6,7 C 5,0 C 84 % 0 lf 999,0 hPa 0,0 l/m 0 min 0 min 0 W/m 14,6 km/h (3 Bft) 93,62 %
18.11.2016 17:14 7,1 C 6,7 C 5,0 C 84 % 0 lf 999,1 hPa 0,0 l/m 0 min 0 min 0 W/m 16,7 km/h (3 Bft) 91,30 %
18.11.2016 17:16 7,0 C 6,7 C 5,0 C 84 % 0 lf 999,0 hPa 0,0 l/m 0 min 0 min 0 W/m 12,6 km/h (3 Bft) 95,74 %
18.11.2016 17:18 7,0 C 6,7 C 5,0 C 84 % 0 lf 999,0 hPa 0,0 l/m 0 min 0 min 0 W/m 12,6 km/h (3 Bft) 93,62 %
18.11.2016 17:20 7,0 C 7,2 C 5,0 C 84 % 0 lf 999,0 hPa 0,0 l/m 0 min 0 min 0 W/m 14,6 km/h (3 Bft) 93,62 %
18.11.2016 17:22 6,9 C 7,2 C 5,0 C 84 % 0 lf 999,1 hPa 0,0 l/m 0 min 0 min 0 W/m 14,6 km/h (3 Bft) 93,62 %
18.11.2016 17:24 6,9 C 7,2 C 5,6 C 85 % 2 lf 999,1 hPa 0,0 l/m 0 min 0 min 0 W/m 18,8 km/h (3 Bft) 93,62 %
18.11.2016 17:26 6,9 C 7,2 C 5,6 C 85 % 3 lf 999,2 hPa 0,0 l/m 0 min 2 min 0 W/m 14,6 km/h (3 Bft) 95,65 %
18.11.2016 17:28 7,0 C 7,2 C 5,6 C 85 % 2 lf 999,2 hPa 0,0 l/m 0 min 2 min 0 W/m 10,5 km/h (2 Bft) 95,74 %
18.11.2016 17:30 7,0 C 7,2 C 5,6 C 85 % 3 lf 999,3 hPa 0,0 l/m 0 min 2 min 0 W/m 20,9 km/h (4 Bft) 97,87 %
18.11.2016 17:32 7,0 C 6,7 C 5,0 C 85 % 6 lf 999,5 hPa 0,0 l/m 0 min 2 min 0 W/m 18,8 km/h (3 Bft) 93,62 %
18.11.2016 17:34 7,0 C 6,7 C 5,0 C 85 % 12 lf 999,7 hPa 0,0 l/m 0 min 2 min 0 W/m 35,6 km/h (5 Bft) 95,74 %
18.11.2016 17:36 7,1 C 6,1 C 5,0 C 85 % 15 lf 999,9 hPa 0,2 l/m 0 min 2 min 0 W/m 33,5 km/h (5 Bft) 95,74 %
18.11.2016 17:38 7,1 C 5,6 C 4,4 C 85 % 15 lf 1000,1 hPa 0,2 l/m 0 min 2 min 0 W/m 46,0 km/h (6 Bft) 93,48 %
18.11.2016 17:40 7,1 C 5,6 C 4,4 C 86 % 15 lf 1000,1 hPa 0,0 l/m 0 min 2 min 0 W/m 56,5 km/h (7 Bft) 97,87 %
18.11.2016 17:42 6,9 C 5,6 C 4,4 C 86 % 15 lf 1000,4 hPa 0,0 l/m 0 min 2 min 0 W/m 50,2 km/h (7 Bft) 97,87 %
18.11.2016 17:44 6,8 C 5,0 C 3,9 C 87 % 15 lf 1000,4 hPa 0,2 l/m 0 min 2 min 5 W/m 62,8 km/h (8 Bft) 93,62 %
18.11.2016 17:46 6,7 C 5,0 C 3,9 C 87 % 15 lf 1000,2 hPa 0,2 l/m 0 min 2 min 0 W/m 50,2 km/h (7 Bft) 97,87 %
18.11.2016 17:48 6,6 C 5,0 C 3,9 C 87 % 15 lf 1000,2 hPa 0,0 l/m 0 min 2 min 0 W/m 35,6 km/h (5 Bft) 95,74 %
18.11.2016 17:50 6,4 C 5,0 C 3,9 C 87 % 15 lf 1000,1 hPa 0,0 l/m 0 min 2 min 0 W/m 25,1 km/h (4 Bft) 97,83 %
18.11.2016 17:52 6,3 C 5,0 C 3,9 C 88 % 15 lf 1000,1 hPa 0,0 l/m 0 min 0 min 5 W/m 25,1 km/h (4 Bft) 97,87 %
18.11.2016 17:54 6,2 C 5,0 C 3,9 C 88 % 15 lf 1000,0 hPa 0,0 l/m 0 min 0 min 5 W/m 25,1 km/h (4 Bft) 97,87 %
18.11.2016 17:56 6,2 C 5,0 C 3,9 C 88 % 15 lf 1000,0 hPa 0,0 l/m 0 min 0 min 5 W/m 31,4 km/h (5 Bft) 93,62 %
18.11.2016 17:58 6,1 C 5,0 C 3,9 C 89 % 15 lf 1000,1 hPa 0,0 l/m 0 min 0 min 5 W/m 18,8 km/h (3 Bft) 95,74 %
18.11.2016 18:00 6,1 C 5,0 C 3,9 C 89 % 15 lf 1000,1 hPa 0,0 l/m 0 min 0 min 5 W/m 18,8 km/h (3 Bft) 95,65 %
18.11.2016 18:02 6,0 C 5,0 C 3,9 C 89 % 15 lf 1000,2 hPa 0,0 l/m 0 min 0 min 5 W/m 27,2 km/h (4 Bft) 100,00 %
18.11.2016 18:06 6,0 C 5,0 C 3,9 C 90 % 15 lf 1000,2 hPa 0,0 l/m 0 min 0 min 0 W/m 33,5 km/h (5 Bft) 98,78 %
18.11.2016 18:08 5,9 C 5,0 C 3,9 C 90 % 15 lf 1000,3 hPa 0,0 l/m 0 min 0 min 0 W/m 25,1 km/h (4 Bft) 95,74 %
18.11.2016 18:10 5,9 C 5,0 C 3,9 C 90 % 15 lf 1000,4 hPa 0,0 l/m 0 min 2 min 0 W/m 43,9 km/h (6 Bft) 95,74 %
18.11.2016 18:12 5,9 C 5,6 C 3,9 C 90 % 15 lf 1000,5 hPa 0,2 l/m 0 min 0 min 0 W/m 37,7 km/h (5 Bft) 97,87 %
18.11.2016 18:14 6,0 C 5,6 C 3,9 C 90 % 15 lf 1000,6 hPa 0,0 l/m 0 min 2 min 0 W/m 35,6 km/h (5 Bft) 95,74 %
18.11.2016 18:16 6,0 C 5,6 C 3,9 C 90 % 15 lf 1000,6 hPa 0,0 l/m 0 min 2 min 0 W/m 54,4 km/h (7 Bft) 95,65 %
18.11.2016 18:18 6,1 C 5,0 C 3,9 C 90 % 15 lf 1000,6 hPa 0,0 l/m 0 min 2 min 0 W/m 54,4 km/h (7 Bft) 95,74 %
18.11.2016 18:20 6,1 C 5,0 C 3,9 C 90 % 15 lf 1000,7 hPa 0,0 l/m 0 min 2 min 0 W/m 60,7 km/h (7 Bft) 95,74 %
18.11.2016 18:22 6,1 C 5,0 C 3,9 C 90 % 15 lf 1000,5 hPa 0,0 l/m 0 min 2 min 0 W/m 52,3 km/h (7 Bft) 97,87 %
18.11.2016 18:24 6,1 C 5,0 C 3,9 C 90 % 15 lf 1000,4 hPa 0,0 l/m 0 min 2 min 0 W/m 46,0 km/h (6 Bft) 93,62 %
18.11.2016 18:26 6,0 C 5,0 C 3,3 C 90 % 15 lf 1000,4 hPa 0,0 l/m 0 min 2 min 0 W/m 41,8 km/h (6 Bft) 95,74 %
18.11.2016 18:28 6,0 C 5,0 C 3,3 C 90 % 15 lf 1000,3 hPa 0,0 l/m 0 min 2 min 0 W/m 35,6 km/h (5 Bft) 97,83 %
18.11.2016 18:30 6,0 C 5,0 C 3,3 C 90 % 15 lf 1000,5 hPa 0,0 l/m 0 min 2 min 0 W/m 37,7 km/h (5 Bft) 95,74 %
18.11.2016 18:32 5,9 C 5,0 C 3,3 C 90 % 15 lf 1000,5 hPa 0,0 l/m 0 min 0 min 0 W/m 29,3 km/h (5 Bft) 95,74 %
18.11.2016 18:34 5,9 C 5,0 C 3,3 C 90 % 15 lf 1000,5 hPa 0,0 l/m 0 min 0 min 0 W/m 27,2 km/h (4 Bft) 91,49 %
18.11.2016 18:36 5,9 C 5,0 C 3,3 C 89 % 15 lf 1000,7 hPa 0,0 l/m 0 min 2 min 0 W/m 29,3 km/h (5 Bft) 97,87 %
18.11.2016 18:38 5,8 C 5,0 C 3,3 C 89 % 15 lf 1000,7 hPa 0,0 l/m 0 min 2 min 0 W/m 29,3 km/h (5 Bft) 93,62 %
18.11.2016 18:40 5,8 C 5,0 C 3,3 C 89 % 15 lf 1000,9 hPa 0,0 l/m 0 min 2 min 0 W/m 27,2 km/h (4 Bft) 93,48 %
18.11.2016 18:42 5,8 C 5,0 C 3,3 C 89 % 15 lf 1000,9 hPa 0,0 l/m 0 min 2 min 0 W/m 37,7 km/h (5 Bft) 95,74 %
18.11.2016 18:44 5,7 C 5,0 C 3,3 C 89 % 15 lf 1000,9 hPa 0,0 l/m 0 min 2 min 0 W/m 39,7 km/h (6 Bft) 95,74 %
18.11.2016 18:46 5,7 C 5,0 C 3,3 C 89 % 15 lf 1000,9 hPa 0,0 l/m 0 min 2 min 0 W/m 31,4 km/h (5 Bft) 95,74 %
18.11.2016 18:48 5,7 C 5,0 C 3,3 C 89 % 15 lf 1001,0 hPa 0,0 l/m 0 min 2 min 0 W/m 46,0 km/h (6 Bft) 95,74 %
18.11.2016 18:50 5,7 C 4,4 C 3,3 C 89 % 15 lf 1001,3 hPa 0,0 l/m 0 min 2 min 0 W/m 46,0 km/h (6 Bft) 95,74 %
18.11.2016 18:52 5,7 C 4,4 C 3,3 C 89 % 15 lf 1001,3 hPa 0,0 l/m 0 min 2 min 0 W/m 58,6 km/h (7 Bft) 95,65 %
18.11.2016 18:54 5,7 C 4,4 C 3,3 C 89 % 15 lf 1001,0 hPa 0,2 l/m 0 min 2 min 0 W/m 39,7 km/h (6 Bft) 100,00 %
18.11.2016 18:56 5,6 C 4,4 C 3,3 C 90 % 15 lf 1001,0 hPa 0,0 l/m 0 min 2 min 0 W/m 41,8 km/h (6 Bft) 93,62 %
18.11.2016 18:58 5,6 C 4,4 C 3,3 C 90 % 15 lf 1001,0 hPa 0,0 l/m 0 min 2 min 0 W/m 48,1 km/h (6 Bft) 97,87 %
18.11.2016 19:00 5,6 C 4,4 C 3,3 C 90 % 15 lf 1001,2 hPa 0,2 l/m 0 min 2 min 0 W/m 37,7 km/h (5 Bft) 97,87 %
18.11.2016 19:02 5,5 C 4,4 C 3,3 C 90 % 15 lf 1001,2 hPa 0,0 l/m 0 min 2 min 0 W/m 35,6 km/h (5 Bft) 97,83 %
18.11.2016 19:04 5,5 C 4,4 C 3,3 C 90 % 15 lf 1001,0 hPa 0,0 l/m 0 min 2 min 0 W/m 27,2 km/h (4 Bft) 97,87 %
18.11.2016 19:06 5,4 C 4,4 C 3,3 C 90 % 15 lf 1001,0 hPa 0,0 l/m 0 min 2 min 0 W/m 37,7 km/h (5 Bft) 97,87 %
18.11.2016 19:08 5,4 C 4,4 C 3,3 C 91 % 15 lf 1001,1 hPa 0,0 l/m 0 min 2 min 0 W/m 35,6 km/h (5 Bft) 93,62 %
18.11.2016 19:10 5,4 C 4,4 C 3,3 C 91 % 15 lf 1001,2 hPa 0,0 l/m 0 min 2 min 5 W/m 27,2 km/h (4 Bft) 95,74 %
18.11.2016 19:12 5,3 C 4,4 C 3,3 C 91 % 15 lf 1001,1 hPa 0,0 l/m 0 min 0 min 5 W/m 35,6 km/h (5 Bft) 97,87 %
18.11.2016 19:14 5,3 C 4,4 C 3,3 C 91 % 15 lf 1001,0 hPa 0,0 l/m 0 min 2 min 5 W/m 35,6 km/h (5 Bft) 97,83 %
18.11.2016 19:16 5,3 C 4,4 C 3,3 C 91 % 15 lf 1001,1 hPa 0,0 l/m 0 min 2 min 5 W/m 35,6 km/h (5 Bft) 97,87 %
18.11.2016 19:18 5,3 C 4,4 C 2,8 C 91 % 15 lf 1001,3 hPa 0,0 l/m 0 min 0 min 5 W/m 25,1 km/h (4 Bft) 100,00 %
18.11.2016 19:20 5,3 C 4,4 C 2,8 C 91 % 15 lf 1001,2 hPa 0,0 l/m 0 min 0 min 5 W/m 20,9 km/h (4 Bft) 100,00 %
18.11.2016 19:22 5,3 C 4,4 C 2,8 C 91 % 15 lf 1001,2 hPa 0,0 l/m 0 min 0 min 5 W/m 39,7 km/h (6 Bft) 100,00 %
18.11.2016 19:24 5,2 C 4,4 C 2,8 C 91 % 15 lf 1001,2 hPa 0,0 l/m 0 min 0 min 5 W/m 25,1 km/h (4 Bft) 97,87 %
18.11.2016 19:26 5,2 C 4,4 C 2,8 C 91 % 15 lf 1001,3 hPa 0,0 l/m 0 min 0 min 5 W/m 25,1 km/h (4 Bft) 100,00 %
18.11.2016 19:28 5,2 C 4,4 C 2,8 C 91 % 15 lf 1001,3 hPa 0,0 l/m 0 min 0 min 5 W/m 29,3 km/h (5 Bft) 100,00 %
18.11.2016 19:30 5,2 C 4,4 C 2,8 C 91 % 15 lf 1001,2 hPa 0,0 l/m 0 min 0 min 5 W/m 23,0 km/h (4 Bft) 100,00 %
18.11.2016 19:32 5,2 C 4,4 C 2,8 C 91 % 15 lf 1001,4 hPa 0,0 l/m 0 min 0 min 5 W/m 16,7 km/h (3 Bft) 100,00 %
18.11.2016 19:34 5,2 C 4,4 C 2,8 C 91 % 15 lf 1001,4 hPa 0,0 l/m 0 min 0 min 5 W/m 25,1 km/h (4 Bft) 100,00 %
18.11.2016 19:36 5,2 C 4,4 C 2,8 C 91 % 15 lf 1001,4 hPa 0,0 l/m 0 min 0 min 5 W/m 25,1 km/h (4 Bft) 97,87 %
18.11.2016 19:38 5,2 C 4,4 C 2,8 C 91 % 15 lf 1001,5 hPa 0,0 l/m 0 min 0 min 5 W/m 20,9 km/h (4 Bft) 100,00 %
18.11.2016 19:40 5,2 C 4,4 C 2,8 C 91 % 15 lf 1001,5 hPa 0,0 l/m 0 min 0 min 5 W/m 20,9 km/h (4 Bft) 100,00 %
18.11.2016 19:42 5,2 C 4,4 C 2,8 C 91 % 15 lf 1001,5 hPa 0,0 l/m 0 min 0 min 5 W/m 23,0 km/h (4 Bft) 97,87 %
18.11.2016 19:44 5,2 C 4,4 C 2,8 C 91 % 15 lf 1001,5 hPa 0,0 l/m 0 min 0 min 5 W/m 18,8 km/h (3 Bft) 95,65 %
18.11.2016 19:46 5,2 C 4,4 C 2,8 C 91 % 15 lf 1001,5 hPa 0,0 l/m 0 min 0 min 5 W/m 20,9 km/h (4 Bft) 100,00 %
18.11.2016 19:48 5,2 C 4,4 C 2,8 C 91 % 15 lf 1001,6 hPa 0,0 l/m 0 min 0 min 5 W/m 14,6 km/h (3 Bft) 97,87 %
18.11.2016 19:50 5,1 C 4,4 C 2,8 C 91 % 15 lf 1001,6 hPa 0,0 l/m 0 min 0 min 5 W/m 10,5 km/h (2 Bft) 95,74 %
18.11.2016 19:52 5,1 C 4,4 C 2,8 C 91 % 15 lf 1001,6 hPa 0,0 l/m 0 min 0 min 5 W/m 18,8 km/h (3 Bft) 100,00 %
18.11.2016 19:54 5,1 C 4,4 C 2,8 C 91 % 15 lf 1001,6 hPa 0,0 l/m 0 min 0 min 5 W/m 16,7 km/h (3 Bft) 97,87 %
18.11.2016 19:56 5,1 C 4,4 C 2,8 C 91 % 15 lf 1001,6 hPa 0,0 l/m 0 min 0 min 5 W/m 23,0 km/h (4 Bft) 97,83 %
18.11.2016 19:58 5,1 C 4,4 C 2,8 C 91 % 15 lf 1001,6 hPa 0,0 l/m 0 min 0 min 5 W/m 20,9 km/h (4 Bft) 100,00 %
18.11.2016 20:00 5,0 C 4,4 C 2,8 C 91 % 15 lf 1001,6 hPa 0,0 l/m 0 min 0 min 5 W/m 20,9 km/h (4 Bft) 97,87 %
18.11.2016 20:02 5,0 C 4,4 C 2,8 C 91 % 15 lf 1001,6 hPa 0,0 l/m 0 min 0 min 5 W/m 16,7 km/h (3 Bft) 100,00 %
18.11.2016 20:04 5,0 C 4,4 C 2,8 C 91 % 15 lf 1001,7 hPa 0,0 l/m 0 min 0 min 5 W/m 14,6 km/h (3 Bft) 100,00 %
18.11.2016 20:06 5,0 C 4,4 C 2,8 C 91 % 15 lf 1001,6 hPa 0,0 l/m 0 min 0 min 0 W/m 18,8 km/h (3 Bft) 93,62 %
18.11.2016 20:08 4,9 C 3,9 C 2,8 C 91 % 15 lf 1001,6 hPa 0,0 l/m 0 min 0 min 0 W/m 14,6 km/h (3 Bft) 95,65 %
18.11.2016 20:10 4,9 C 3,9 C 2,8 C 91 % 15 lf 1001,7 hPa 0,0 l/m 0 min 0 min 0 W/m 14,6 km/h (3 Bft) 100,00 %
18.11.2016 20:12 4,9 C 3,9 C 2,8 C 91 % 15 lf 1001,7 hPa 0,0 l/m 0 min 0 min 0 W/m 16,7 km/h (3 Bft) 95,74 %
18.11.2016 20:14 4,9 C 4,4 C 2,8 C 91 % 15 lf 1001,7 hPa 0,0 l/m 0 min 0 min 0 W/m 18,8 km/h (3 Bft) 95,74 %
18.11.2016 20:16 4,9 C 4,4 C 2,8 C 91 % 15 lf 1001,8 hPa 0,0 l/m 0 min 0 min 0 W/m 14,6 km/h (3 Bft) 95,74 %
18.11.2016 20:18 4,9 C 4,4 C 2,8 C 91 % 14 lf 1001,9 hPa 0,0 l/m 0 min 0 min 0 W/m 23,0 km/h (4 Bft) 91,49 %
18.11.2016 20:20 4,9 C 4,4 C 2,8 C 91 % 15 lf 1002,1 hPa 0,0 l/m 0 min 2 min 0 W/m 18,8 km/h (3 Bft) 95,65 %
18.11.2016 20:22 4,9 C 4,4 C 2,8 C 92 % 15 lf 1002,0 hPa 0,0 l/m 0 min 2 min 0 W/m 14,6 km/h (3 Bft) 93,62 %
18.11.2016 20:24 4,9 C 4,4 C 2,8 C 92 % 15 lf 1002,1 hPa 0,0 l/m 0 min 2 min 0 W/m 18,8 km/h (3 Bft) 91,49 %
18.11.2016 20:26 4,9 C 4,4 C 2,8 C 92 % 15 lf 1002,0 hPa 0,0 l/m 0 min 0 min 0 W/m 18,8 km/h (3 Bft) 95,74 %
18.11.2016 20:28 4,9 C 4,4 C 3,3 C 92 % 15 lf 1002,1 hPa 0,0 l/m 0 min 0 min 0 W/m 10,5 km/h (2 Bft) 93,62 %
18.11.2016 20:30 4,9 C 4,4 C 3,3 C 92 % 14 lf 1002,1 hPa 0,0 l/m 0 min 2 min 0 W/m 8,4 km/h (2 Bft) 93,62 %
18.11.2016 20:32 4,9 C 4,4 C 3,3 C 92 % 15 lf 1002,3 hPa 0,0 l/m 0 min 2 min 0 W/m 12,6 km/h (3 Bft) 95,65 %
18.11.2016 20:34 4,9 C 4,4 C 3,3 C 92 % 15 lf 1002,4 hPa 0,0 l/m 0 min 2 min 0 W/m 10,5 km/h (2 Bft) 91,49 %
18.11.2016 20:36 4,9 C 4,4 C 3,3 C 92 % 15 lf 1002,5 hPa 0,0 l/m 0 min 2 min 0 W/m 10,5 km/h (2 Bft) 89,36 %
18.11.2016 20:38 4,9 C 4,4 C 3,3 C 92 % 15 lf 1002,4 hPa 0,0 l/m 0 min 2 min 0 W/m 14,6 km/h (3 Bft) 89,36 %
18.11.2016 20:40 4,9 C 4,4 C 3,3 C 92 % 15 lf 1002,4 hPa 0,0 l/m 0 min 2 min 0 W/m 12,6 km/h (3 Bft) 90,00 %
18.11.2016 20:42 4,9 C 4,4 C 3,3 C 92 % 15 lf 1002,4 hPa 0,0 l/m 0 min 2 min 0 W/m 12,6 km/h (3 Bft) 86,96 %
18.11.2016 20:44 4,9 C 3,9 C 2,8 C 92 % 15 lf 1002,5 hPa 0,0 l/m 0 min 0 min 0 W/m 6,3 km/h (2 Bft) 91,49 %
18.11.2016 20:46 4,9 C 3,9 C 2,8 C 92 % 15 lf 1002,4 hPa 0,0 l/m 0 min 0 min 0 W/m 8,4 km/h (2 Bft) 87,23 %
18.11.2016 20:48 4,9 C 3,9 C 2,8 C 92 % 15 lf 1002,4 hPa 0,0 l/m 0 min 0 min 0 W/m 8,4 km/h (2 Bft) 91,49 %
18.11.2016 20:50 4,9 C 3,9 C 2,8 C 92 % 15 lf 1002,4 hPa 0,0 l/m 0 min 0 min 0 W/m 6,3 km/h (2 Bft) 93,62 %
18.11.2016 20:52 4,9 C 3,9 C 2,8 C 92 % 15 lf 1002,4 hPa 0,0 l/m 0 min 0 min 0 W/m 8,4 km/h (2 Bft) 91,49 %
18.11.2016 20:54 4,8 C 3,9 C 2,2 C 92 % 15 lf 1002,5 hPa 0,0 l/m 0 min 0 min 0 W/m 8,4 km/h (2 Bft) 89,13 %
18.11.2016 20:56 4,8 C 3,9 C 2,2 C 92 % 15 lf 1002,4 hPa 0,0 l/m 0 min 0 min 0 W/m 6,3 km/h (2 Bft) 91,49 %
18.11.2016 20:58 4,8 C 3,9 C 2,2 C 92 % 15 lf 1002,5 hPa 0,0 l/m 0 min 0 min 0 W/m 14,6 km/h (3 Bft) 91,49 %
18.11.2016 21:00 4,8 C 3,9 C 2,2 C 92 % 15 lf 1002,5 hPa 0,0 l/m 0 min 0 min 0 W/m 10,5 km/h (2 Bft) 91,49 %
18.11.2016 21:02 4,8 C 3,9 C 2,2 C 92 % 15 lf 1002,5 hPa 0,0 l/m 0 min 0 min 0 W/m 10,5 km/h (2 Bft) 93,62 %
18.11.2016 21:04 4,7 C 3,9 C 2,2 C 92 % 15 lf 1002,5 hPa 0,0 l/m 0 min 0 min 0 W/m 12,6 km/h (3 Bft) 93,62 %
18.11.2016 21:06 4,7 C 3,9 C 2,2 C 92 % 15 lf 1002,6 hPa 0,0 l/m 0 min 0 min 0 W/m 8,4 km/h (2 Bft) 95,65 %
18.11.2016 21:08 4,7 C 3,9 C 2,2 C 92 % 15 lf 1002,7 hPa 0,0 l/m 0 min 0 min 0 W/m 12,6 km/h (3 Bft) 95,74 %
18.11.2016 21:10 4,7 C 3,9 C 2,2 C 92 % 15 lf 1002,6 hPa 0,0 l/m 0 min 0 min 0 W/m 10,5 km/h (2 Bft) 93,62 %
18.11.2016 21:12 4,7 C 3,9 C 2,2 C 92 % 15 lf 1002,6 hPa 0,0 l/m 0 min 0 min 0 W/m 10,5 km/h (2 Bft) 93,62 %
18.11.2016 21:14 4,7 C 3,9 C 2,2 C 92 % 15 lf 1002,6 hPa 0,0 l/m 0 min 0 min 0 W/m 6,3 km/h (2 Bft) 91,49 %
18.11.2016 21:16 4,6 C 3,9 C 2,2 C 92 % 15 lf 1002,7 hPa 0,0 l/m 0 min 0 min 5 W/m 8,4 km/h (2 Bft) 95,65 %
18.11.2016 21:18 4,6 C 3,9 C 2,2 C 92 % 15 lf 1002,7 hPa 0,0 l/m 0 min 2 min 0 W/m 14,6 km/h (3 Bft) 93,62 %
18.11.2016 21:20 4,6 C 3,9 C 2,2 C 93 % 15 lf 1002,6 hPa 0,0 l/m 0 min 2 min 0 W/m 12,6 km/h (3 Bft) 97,87 %
18.11.2016 21:22 4,6 C 3,9 C 2,2 C 93 % 15 lf 1002,7 hPa 0,0 l/m 0 min 0 min 0 W/m 14,6 km/h (3 Bft) 97,87 %
18.11.2016 21:24 4,6 C 3,9 C 2,2 C 93 % 15 lf 1002,6 hPa 0,0 l/m 0 min 0 min 0 W/m 14,6 km/h (3 Bft) 95,74 %
18.11.2016 21:26 4,6 C 3,9 C 2,2 C 93 % 15 lf 1002,6 hPa 0,0 l/m 0 min 0 min 5 W/m 18,8 km/h (3 Bft) 93,62 %
18.11.2016 21:28 4,6 C 3,9 C 2,2 C 93 % 15 lf 1002,7 hPa 0,0 l/m 0 min 0 min 0 W/m 14,6 km/h (3 Bft) 95,74 %
18.11.2016 21:30 4,6 C 3,9 C 2,2 C 93 % 15 lf 1002,8 hPa 0,0 l/m 0 min 0 min 0 W/m 14,6 km/h (3 Bft) 89,13 %
18.11.2016 21:32 4,6 C 3,9 C 2,2 C 93 % 15 lf 1002,7 hPa 0,0 l/m 0 min 0 min 0 W/m 14,6 km/h (3 Bft) 97,87 %
18.11.2016 21:34 4,6 C 3,9 C 2,2 C 93 % 15 lf 1002,8 hPa 0,0 l/m 0 min 0 min 0 W/m 10,5 km/h (2 Bft) 97,87 %
18.11.2016 21:36 4,6 C 3,9 C 2,2 C 93 % 15 lf 1002,8 hPa 0,0 l/m 0 min 0 min 0 W/m 16,7 km/h (3 Bft) 97,87 %
18.11.2016 21:38 4,6 C 3,9 C 2,2 C 93 % 15 lf 1002,8 hPa 0,0 l/m 0 min 0 min 0 W/m 14,6 km/h (3 Bft) 97,87 %
18.11.2016 21:40 4,6 C 3,9 C 2,2 C 93 % 15 lf 1002,8 hPa 0,0 l/m 0 min 0 min 0 W/m 16,7 km/h (3 Bft) 100,00 %
18.11.2016 21:42 4,6 C 3,9 C 2,2 C 93 % 15 lf 1002,9 hPa 0,0 l/m 0 min 0 min 0 W/m 16,7 km/h (3 Bft) 97,87 %
18.11.2016 21:44 4,6 C 3,9 C 2,2 C 93 % 15 lf 1002,9 hPa 0,0 l/m 0 min 0 min 0 W/m 14,6 km/h (3 Bft) 100,00 %
18.11.2016 21:46 4,6 C 3,9 C 2,2 C 93 % 15 lf 1002,9 hPa 0,0 l/m 0 min 0 min 0 W/m 16,7 km/h (3 Bft) 97,87 %
18.11.2016 21:48 4,6 C 3,9 C 2,2 C 93 % 15 lf 1002,9 hPa 0,0 l/m 0 min 0 min 0 W/m 16,7 km/h (3 Bft) 97,87 %
18.11.2016 21:50 4,6 C 3,9 C 2,2 C 93 % 15 lf 1002,9 hPa 0,0 l/m 0 min 0 min 0 W/m 10,5 km/h (2 Bft) 97,87 %
18.11.2016 21:52 4,6 C 3,9 C 2,2 C 93 % 15 lf 1002,9 hPa 0,0 l/m 0 min 0 min 0 W/m 12,6 km/h (3 Bft) 100,00 %
18.11.2016 21:54 4,6 C 3,9 C 2,2 C 93 % 15 lf 1002,9 hPa 0,0 l/m 0 min 0 min 0 W/m 12,6 km/h (3 Bft) 97,87 %
18.11.2016 21:56 4,6 C 3,9 C 2,2 C 93 % 15 lf 1002,9 hPa 0,0 l/m 0 min 0 min 0 W/m 14,6 km/h (3 Bft) 97,87 %
18.11.2016 21:58 4,6 C 3,9 C 2,2 C 93 % 15 lf 1002,9 hPa 0,0 l/m 0 min 0 min 0 W/m 8,4 km/h (2 Bft) 97,87 %
18.11.2016 22:00 4,6 C 3,9 C 2,2 C 93 % 15 lf 1002,9 hPa 0,0 l/m 0 min 0 min 0 W/m 12,6 km/h (3 Bft) 95,74 %
18.11.2016 22:02 4,6 C 3,9 C 2,2 C 93 % 15 lf 1002,9 hPa 0,0 l/m 0 min 0 min 0 W/m 16,7 km/h (3 Bft) 100,00 %
18.11.2016 22:04 4,6 C 3,9 C 2,2 C 93 % 15 lf 1002,9 hPa 0,0 l/m 0 min 0 min 0 W/m 14,6 km/h (3 Bft) 97,83 %
18.11.2016 22:06 4,6 C 3,9 C 2,2 C 93 % 15 lf 1003,0 hPa 0,0 l/m 0 min 0 min 0 W/m 10,5 km/h (2 Bft) 97,87 %
18.11.2016 22:08 4,6 C 3,9 C 2,2 C 93 % 15 lf 1003,0 hPa 0,0 l/m 0 min 0 min 0 W/m 14,6 km/h (3 Bft) 97,87 %
18.11.2016 22:10 4,6 C 3,9 C 2,2 C 93 % 15 lf 1003,0 hPa 0,0 l/m 0 min 0 min 0 W/m 8,4 km/h (2 Bft) 93,62 %
18.11.2016 22:12 4,6 C 3,9 C 2,2 C 93 % 15 lf 1003,1 hPa 0,0 l/m 0 min 0 min 0 W/m 14,6 km/h (3 Bft) 97,87 %
18.11.2016 22:14 4,6 C 3,9 C 2,2 C 93 % 15 lf 1003,0 hPa 0,0 l/m 0 min 0 min 0 W/m 12,6 km/h (3 Bft) 100,00 %
18.11.2016 22:16 4,6 C 3,9 C 2,2 C 93 % 15 lf 1003,1 hPa 0,0 l/m 0 min 0 min 0 W/m 14,6 km/h (3 Bft) 93,48 %
18.11.2016 22:18 4,6 C 3,9 C 2,2 C 93 % 14 lf 1003,1 hPa 0,0 l/m 0 min 0 min 0 W/m 14,6 km/h (3 Bft) 97,87 %
18.11.2016 22:20 4,6 C 3,9 C 2,2 C 93 % 14 lf 1003,1 hPa 0,0 l/m 0 min 2 min 0 W/m 14,6 km/h (3 Bft) 97,87 %
18.11.2016 22:22 4,6 C 4,4 C 2,2 C 93 % 14 lf 1003,1 hPa 0,0 l/m 0 min 0 min 0 W/m 16,7 km/h (3 Bft) 97,87 %
18.11.2016 22:24 4,6 C 3,9 C 2,2 C 93 % 13 lf 1003,2 hPa 0,0 l/m 0 min 0 min 0 W/m 20,9 km/h (4 Bft) 97,87 %
18.11.2016 22:26 4,6 C 3,9 C 2,2 C 93 % 13 lf 1003,1 hPa 0,0 l/m 0 min 0 min 0 W/m 12,6 km/h (3 Bft) 97,87 %
18.11.2016 22:28 4,7 C 4,4 C 2,8 C 93 % 13 lf 1003,1 hPa 0,0 l/m 0 min 0 min 0 W/m 16,7 km/h (3 Bft) 95,65 %
18.11.2016 22:30 4,7 C 4,4 C 2,8 C 93 % 12 lf 1003,2 hPa 0,0 l/m 0 min 0 min 0 W/m 25,1 km/h (4 Bft) 97,87 %
18.11.2016 22:32 4,7 C 4,4 C 2,8 C 93 % 11 lf 1003,2 hPa 0,0 l/m 0 min 0 min 0 W/m 14,6 km/h (3 Bft) 97,87 %
18.11.2016 22:34 4,7 C 4,4 C 2,8 C 93 % 9 lf 1003,3 hPa 0,0 l/m 0 min 0 min 0 W/m 16,7 km/h (3 Bft) 97,87 %
18.11.2016 22:36 4,8 C 4,4 C 2,8 C 93 % 8 lf 1003,3 hPa 0,0 l/m 0 min 0 min 0 W/m 25,1 km/h (4 Bft) 97,87 %
18.11.2016 22:38 4,8 C 4,4 C 2,8 C 93 % 7 lf 1003,2 hPa 0,0 l/m 0 min 0 min 0 W/m 14,6 km/h (3 Bft) 97,83 %
18.11.2016 22:40 4,8 C 4,4 C 2,8 C 93 % 6 lf 1003,2 hPa 0,0 l/m 0 min 0 min 0 W/m 18,8 km/h (3 Bft) 89,36 %
18.11.2016 22:42 4,9 C 4,4 C 2,8 C 93 % 4 lf 1003,2 hPa 0,0 l/m 0 min 2 min 0 W/m 20,9 km/h (4 Bft) 95,74 %
18.11.2016 22:44 4,9 C 4,4 C 2,8 C 93 % 4 lf 1003,1 hPa 0,0 l/m 0 min 0 min 0 W/m 20,9 km/h (4 Bft) 95,74 %
18.11.2016 22:46 4,9 C 4,4 C 2,8 C 93 % 3 lf 1003,2 hPa 0,0 l/m 0 min 0 min 0 W/m 10,5 km/h (2 Bft) 91,49 %
18.11.2016 22:48 4,9 C 4,4 C 2,8 C 92 % 3 lf 1003,2 hPa 0,0 l/m 0 min 0 min 0 W/m 18,8 km/h (3 Bft) 97,87 %
18.11.2016 22:50 5,0 C 4,4 C 2,8 C 92 % 2 lf 1003,4 hPa 0,0 l/m 0 min 2 min 0 W/m 16,7 km/h (3 Bft) 100,00 %
18.11.2016 22:52 5,1 C 4,4 C 2,8 C 92 % 2 lf 1003,3 hPa 0,0 l/m 0 min 0 min 0 W/m 14,6 km/h (3 Bft) 97,87 %
18.11.2016 22:54 5,1 C 4,4 C 2,8 C 92 % 1 lf 1003,3 hPa 0,0 l/m 0 min 0 min 0 W/m 16,7 km/h (3 Bft) 100,00 %
18.11.2016 22:56 5,1 C 4,4 C 2,8 C 92 % 0 lf 1003,3 hPa 0,0 l/m 0 min 0 min 0 W/m 12,6 km/h (3 Bft) 97,87 %
18.11.2016 22:58 5,1 C 4,4 C 2,8 C 91 % 0 lf 1003,3 hPa 0,0 l/m 0 min 0 min 0 W/m 14,6 km/h (3 Bft) 97,87 %
18.11.2016 23:00 5,2 C 4,4 C 2,8 C 91 % 0 lf 1003,3 hPa 0,0 l/m 0 min 0 min 0 W/m 16,7 km/h (3 Bft) 100,00 %
18.11.2016 23:02 5,2 C 5,0 C 2,8 C 91 % 0 lf 1003,4 hPa 0,0 l/m 0 min 0 min 0 W/m 23,0 km/h (4 Bft) 100,00 %
18.11.2016 23:04 5,2 C 5,0 C 2,8 C 91 % 0 lf 1003,4 hPa 0,0 l/m 0 min 2 min 0 W/m 25,1 km/h (4 Bft) 95,74 %
18.11.2016 23:06 5,3 C 5,0 C 2,8 C 91 % 0 lf 1003,4 hPa 0,0 l/m 0 min 0 min 0 W/m 16,7 km/h (3 Bft) 95,74 %
18.11.2016 23:08 5,3 C 5,0 C 2,8 C 90 % 0 lf 1003,4 hPa 0,0 l/m 0 min 0 min 5 W/m 12,6 km/h (3 Bft) 97,87 %
18.11.2016 23:10 5,3 C 5,0 C 2,8 C 90 % 0 lf 1003,4 hPa 0,0 l/m 0 min 0 min 0 W/m 14,6 km/h (3 Bft) 95,74 %
18.11.2016 23:12 5,4 C 5,0 C 2,8 C 90 % 0 lf 1003,5 hPa 0,0 l/m 0 min 0 min 5 W/m 31,4 km/h (5 Bft) 97,87 %
18.11.2016 23:14 5,4 C 5,0 C 2,8 C 90 % 0 lf 1003,5 hPa 0,0 l/m 0 min 2 min 5 W/m 20,9 km/h (4 Bft) 97,83 %
18.11.2016 23:16 5,4 C 5,0 C 2,8 C 90 % 0 lf 1003,5 hPa 0,0 l/m 0 min 0 min 5 W/m 12,6 km/h (3 Bft) 97,87 %
18.11.2016 23:18 5,4 C 5,0 C 2,8 C 90 % 0 lf 1003,5 hPa 0,0 l/m 0 min 0 min 5 W/m 14,6 km/h (3 Bft) 97,87 %
18.11.2016 23:20 5,4 C 4,4 C 2,2 C 89 % 0 lf 1003,5 hPa 0,0 l/m 0 min 0 min 5 W/m 12,6 km/h (3 Bft) 95,74 %
18.11.2016 23:22 5,4 C 4,4 C 2,2 C 89 % 0 lf 1003,5 hPa 0,0 l/m 0 min 0 min 5 W/m 14,6 km/h (3 Bft) 93,62 %
18.11.2016 23:24 5,4 C 4,4 C 2,8 C 89 % 0 lf 1003,5 hPa 0,0 l/m 0 min 0 min 5 W/m 12,6 km/h (3 Bft) 95,74 %
18.11.2016 23:26 5,4 C 5,0 C 2,8 C 89 % 0 lf 1003,5 hPa 0,0 l/m 0 min 0 min 5 W/m 20,9 km/h (4 Bft) 95,65 %
18.11.2016 23:28 5,5 C 5,0 C 2,8 C 89 % 0 lf 1003,5 hPa 0,0 l/m 0 min 2 min 5 W/m 16,7 km/h (3 Bft) 85,11 %
18.11.2016 23:30 5,5 C 5,0 C 2,8 C 89 % 0 lf 1003,6 hPa 0,0 l/m 0 min 0 min 5 W/m 14,6 km/h (3 Bft) 93,62 %
18.11.2016 23:32 5,5 C 5,0 C 2,8 C 88 % 0 lf 1003,6 hPa 0,0 l/m 0 min 0 min 5 W/m 12,6 km/h (3 Bft) 95,74 %
18.11.2016 23:34 5,5 C 5,0 C 2,8 C 88 % 0 lf 1003,6 hPa 0,0 l/m 0 min 0 min 5 W/m 10,5 km/h (2 Bft) 95,74 %
18.11.2016 23:36 5,5 C 5,0 C 2,8 C 88 % 0 lf 1003,6 hPa 0,0 l/m 0 min 0 min 5 W/m 14,6 km/h (3 Bft) 95,74 %
18.11.2016 23:38 5,5 C 5,0 C 2,8 C 88 % 0 lf 1003,7 hPa 0,0 l/m 0 min 0 min 0 W/m 12,6 km/h (3 Bft) 93,48 %
18.11.2016 23:40 5,6 C 5,0 C 2,8 C 88 % 0 lf 1003,7 hPa 0,0 l/m 0 min 0 min 0 W/m 12,6 km/h (3 Bft) 95,74 %
18.11.2016 23:42 5,6 C 5,6 C 2,8 C 88 % 0 lf 1003,8 hPa 0,0 l/m 0 min 0 min 5 W/m 12,6 km/h (3 Bft) 97,87 %
18.11.2016 23:44 5,6 C 5,6 C 2,8 C 88 % 0 lf 1003,8 hPa 0,0 l/m 0 min 0 min 0 W/m 12,6 km/h (3 Bft) 95,74 %
18.11.2016 23:46 5,6 C 5,6 C 2,8 C 88 % 0 lf 1003,9 hPa 0,0 l/m 0 min 0 min 5 W/m 16,7 km/h (3 Bft) 87,23 %
18.11.2016 23:48 5,6 C 5,6 C 2,8 C 88 % 0 lf 1003,9 hPa 0,0 l/m 0 min 0 min 0 W/m 16,7 km/h (3 Bft) 97,87 %
18.11.2016 23:50 5,6 C 5,6 C 2,8 C 88 % 0 lf 1003,9 hPa 0,0 l/m 0 min 0 min 5 W/m 14,6 km/h (3 Bft) 91,30 %
18.11.2016 23:52 5,6 C 5,0 C 2,8 C 88 % 0 lf 1003,9 hPa 0,0 l/m 0 min 0 min 5 W/m 14,6 km/h (3 Bft) 97,87 %
18.11.2016 23:54 5,6 C 5,0 C 2,8 C 88 % 0 lf 1003,9 hPa 0,0 l/m 0 min 0 min 5 W/m 18,8 km/h (3 Bft) 97,87 %
18.11.2016 23:56 5,6 C 5,6 C 2,2 C 88 % 0 lf 1003,9 hPa 0,0 l/m 0 min 0 min 5 W/m 14,6 km/h (3 Bft) 97,87 %
18.11.2016 23:58 5,6 C 5,0 C 2,2 C 88 % 0 lf 1003,9 hPa 0,0 l/m 0 min 0 min 5 W/m 10,5 km/h (2 Bft) 93,62 %
_ Min-Zeit 21:42 20:08 20:54 15:22 00:00 04:30 - - - - 06:06 23:28
Minimum _ 4,5 C 3,9 C 2,2 C 79 % 0 lf 990,7 hPa - - - - 0,0 km/h (0 Bft) 85,11 %
_ Max-Zeit 03:32 14:22 02:44 08:40 04:20 23:46 09:34 09:06 00:26 11:34 17:44 02:58
Maximum _ 12,1 C 13,9 C 10,6 C 97 % 15 lf 1003,9 hPa 0,6 l/m 2 min 2 min 432 W/m 62,8 km/h
S-SW (8 Bft)
100,00 %
Durchschnitt _ 7,5 C 7,5 C 5,7 C 89 % 8 lf 997,4 hPa #7,0 l/m #2:58 h #6:06 h 83 W/m 23,2 km/h (4 Bft) 96,09 %
© 2016 W. Hausmann